Time,TemperatureF,DewpointF,PressureIn,WindDirection,WindDirectionDegrees,WindSpeedMPH,WindSpeedGustMPH,Humidity,HourlyPrecipIn,Conditions,Clouds,dailyrainin,SoftwareType,DateUTC
2013-03-24 00:00:00,39.6,38.0,29.73,NE,45,1.1,1.8,94,0.00,,,0.00,WUHU216HW,2013-03-24 05:00:00,
2013-03-24 00:02:00,39.6,38.0,29.73,NE,45,0.9,1.8,94,0.00,,,0.00,WUHU216HW,2013-03-24 05:02:00,
2013-03-24 00:03:00,39.6,38.0,29.72,NE,45,0.9,1.8,94,0.00,,,0.00,WUHU216HW,2013-03-24 05:03:00,
2013-03-24 00:06:00,39.6,38.0,29.73,North,0,0.4,1.8,94,0.00,,,0.00,WUHU216HW,2013-03-24 05:06:00,
2013-03-24 00:08:00,39.6,38.0,29.73,North,0,0.9,1.8,94,0.00,,,0.00,WUHU216HW,2013-03-24 05:08:00,
2013-03-24 00:10:00,39.6,38.0,29.73,NNW,338,0.0,1.1,94,0.00,,,0.00,WUHU216HW,2013-03-24 05:10:00,
2013-03-24 00:13:00,39.6,38.0,29.73,North,0,0.4,1.1,94,0.00,,,0.00,WUHU216HW,2013-03-24 05:13:00,
2013-03-24 00:15:00,39.4,37.8,29.73,North,0,0.4,0.9,94,0.00,,,0.00,WUHU216HW,2013-03-24 05:15:00,
2013-03-24 00:16:00,39.4,37.8,29.73,North,0,2.0,2.0,94,0.00,,,0.00,WUHU216HW,2013-03-24 05:16:00,
2013-03-24 00:17:00,39.4,37.8,29.73,North,0,0.7,2.0,94,0.00,,,0.00,WUHU216HW,2013-03-24 05:17:00,
2013-03-24 00:18:00,39.4,37.8,29.73,North,0,0.7,2.0,94,0.00,,,0.00,WUHU216HW,2013-03-24 05:18:00,
2013-03-24 00:19:00,39.6,38.0,29.72,North,0,0.7,2.0,94,0.00,,,0.00,WUHU216HW,2013-03-24 05:19:00,
2013-03-24 00:20:00,39.4,37.8,29.72,NNW,338,0.4,2.0,94,0.00,,,0.00,WUHU216HW,2013-03-24 05:20:00,
2013-03-24 00:22:00,39.4,37.8,29.73,NW,315,0.7,2.0,94,0.00,,,0.00,WUHU216HW,2013-03-24 05:22:00,
2013-03-24 00:23:00,39.4,37.8,29.73,NW,315,0.7,2.0,94,0.00,,,0.00,WUHU216HW,2013-03-24 05:23:00,
2013-03-24 00:24:00,39.4,37.8,29.73,NNW,338,1.3,2.0,94,0.00,,,0.00,WUHU216HW,2013-03-24 05:24:00,
2013-03-24 00:26:00,39.4,37.8,29.73,NW,315,1.1,1.8,94,0.01,,,0.01,WUHU216HW,2013-03-24 05:26:00,
2013-03-24 00:28:00,39.4,37.8,29.73,North,0,0.7,1.8,94,0.01,,,0.01,WUHU216HW,2013-03-24 05:28:00,
2013-03-24 00:29:00,39.4,37.8,29.73,NW,315,0.7,1.8,94,0.01,,,0.01,WUHU216HW,2013-03-24 05:29:00,
2013-03-24 00:30:00,39.4,37.8,29.72,NNE,23,2.0,2.0,94,0.01,,,0.01,WUHU216HW,2013-03-24 05:30:00,
2013-03-24 00:32:00,39.4,37.8,29.71,North,0,1.1,2.0,94,0.01,,,0.01,WUHU216HW,2013-03-24 05:32:00,
2013-03-24 00:33:00,39.4,37.8,29.71,North,0,2.7,2.7,94,0.01,,,0.01,WUHU216HW,2013-03-24 05:33:00,
2013-03-24 00:34:00,39.4,37.8,29.71,North,0,2.7,2.7,94,0.01,,,0.01,WUHU216HW,2013-03-24 05:34:00,
2013-03-24 00:36:00,39.2,37.6,29.71,NE,45,0.4,3.4,94,0.01,,,0.01,WUHU216HW,2013-03-24 05:36:00,
2013-03-24 00:37:00,39.4,37.8,29.71,NNE,23,2.0,3.4,94,0.01,,,0.01,WUHU216HW,2013-03-24 05:37:00,
2013-03-24 00:38:00,39.2,37.6,29.71,NNE,23,0.4,3.4,94,0.01,,,0.01,WUHU216HW,2013-03-24 05:38:00,
2013-03-24 00:39:00,39.4,37.8,29.71,NNE,23,2.0,3.4,94,0.01,,,0.01,WUHU216HW,2013-03-24 05:39:00,
2013-03-24 00:40:00,39.2,37.6,29.71,North,0,1.1,3.4,94,0.01,,,0.01,WUHU216HW,2013-03-24 05:40:00,
2013-03-24 00:44:00,39.2,37.6,29.71,North,0,0.0,3.4,94,0.01,,,0.01,WUHU216HW,2013-03-24 05:44:00,
2013-03-24 00:45:00,39.2,37.6,29.72,North,0,0.0,2.0,94,0.01,,,0.01,WUHU216HW,2013-03-24 05:45:00,
2013-03-24 00:48:00,39.2,37.6,29.74,West,270,1.1,1.1,94,0.01,,,0.01,WUHU216HW,2013-03-24 05:48:00,
2013-03-24 00:49:00,39.2,37.6,29.74,West,270,1.1,1.1,94,0.01,,,0.01,WUHU216HW,2013-03-24 05:49:00,
2013-03-24 00:50:00,39.4,37.8,29.74,West,270,1.6,1.6,94,0.01,,,0.01,WUHU216HW,2013-03-24 05:50:00,
2013-03-24 00:51:00,39.4,37.8,29.74,WSW,248,1.8,1.8,94,0.01,,,0.01,WUHU216HW,2013-03-24 05:51:00,
2013-03-24 00:53:00,39.4,37.8,29.76,WSW,248,2.2,2.2,94,0.01,,,0.01,WUHU216HW,2013-03-24 05:53:00,
2013-03-24 00:54:00,39.4,37.8,29.76,WSW,248,2.2,2.2,94,0.01,,,0.01,WUHU216HW,2013-03-24 05:54:00,
2013-03-24 00:56:00,39.4,37.8,29.76,West,270,2.5,2.5,94,0.01,,,0.01,WUHU216HW,2013-03-24 05:56:00,
2013-03-24 00:57:00,39.4,37.8,29.76,WNW,293,3.1,3.1,94,0.01,,,0.01,WUHU216HW,2013-03-24 05:57:00,
2013-03-24 00:59:00,39.4,37.8,29.76,WNW,293,3.1,3.1,94,0.01,,,0.01,WUHU216HW,2013-03-24 05:59:00,
2013-03-24 01:00:00,39.4,37.8,29.76,West,270,2.2,3.1,94,0.01,,,0.01,WUHU216HW,2013-03-24 06:00:00,
2013-03-24 01:01:00,39.6,38.0,29.76,West,270,2.7,3.1,94,0.01,,,0.01,WUHU216HW,2013-03-24 06:01:00,
2013-03-24 01:02:00,39.4,37.8,29.76,West,270,3.6,3.6,94,0.01,,,0.01,WUHU216HW,2013-03-24 06:02:00,
2013-03-24 01:04:00,39.4,37.8,29.76,West,270,2.9,3.6,94,0.01,,,0.01,WUHU216HW,2013-03-24 06:04:00,
2013-03-24 01:05:00,39.4,37.8,29.76,West,270,0.4,3.6,94,0.01,,,0.01,WUHU216HW,2013-03-24 06:05:00,
2013-03-24 01:08:00,39.4,37.8,29.75,NNW,338,1.1,3.6,94,0.01,,,0.01,WUHU216HW,2013-03-24 06:08:00,
2013-03-24 01:09:00,39.4,37.8,29.75,NNW,338,1.1,3.6,94,0.01,,,0.01,WUHU216HW,2013-03-24 06:09:00,
2013-03-24 01:12:00,39.4,37.8,29.72,NNE,23,1.6,2.9,94,0.01,,,0.01,WUHU216HW,2013-03-24 06:12:00,
2013-03-24 01:14:00,39.4,37.8,29.71,NE,45,2.9,2.9,94,0.01,,,0.01,WUHU216HW,2013-03-24 06:14:00,
2013-03-24 01:15:00,39.2,37.6,29.71,NNE,23,3.4,3.4,94,0.01,,,0.01,WUHU216HW,2013-03-24 06:15:00,
2013-03-24 01:17:00,39.4,37.8,29.71,NE,45,0.7,3.4,94,0.01,,,0.01,WUHU216HW,2013-03-24 06:17:00,
2013-03-24 01:19:00,39.2,37.6,29.71,NE,45,1.1,3.4,94,0.01,,,0.01,WUHU216HW,2013-03-24 06:19:00,
2013-03-24 01:21:00,39.2,37.6,29.71,NNE,23,2.2,3.4,94,0.01,,,0.01,WUHU216HW,2013-03-24 06:21:00,
2013-03-24 01:23:00,39.2,37.6,29.71,NNE,23,0.4,3.4,94,0.00,,,0.01,WUHU216HW,2013-03-24 06:23:00,
2013-03-24 01:25:00,39.2,37.6,29.71,NNE,23,0.4,3.4,94,0.00,,,0.01,WUHU216HW,2013-03-24 06:25:00,
2013-03-24 01:29:00,39.2,37.6,29.71,NNE,23,0.4,2.5,94,0.00,,,0.01,WUHU216HW,2013-03-24 06:29:00,
2013-03-24 01:30:00,39.2,37.6,29.71,NNE,23,0.4,2.5,94,0.00,,,0.01,WUHU216HW,2013-03-24 06:30:00,
2013-03-24 01:32:00,39.2,37.6,29.71,ENE,68,2.0,2.5,94,0.00,,,0.01,WUHU216HW,2013-03-24 06:32:00,
2013-03-24 01:35:00,39.2,37.6,29.71,NNE,23,1.1,2.5,94,0.00,,,0.01,WUHU216HW,2013-03-24 06:35:00,
2013-03-24 01:38:00,39.2,37.6,29.70,NNE,23,1.3,3.1,94,0.00,,,0.01,WUHU216HW,2013-03-24 06:38:00,
2013-03-24 01:39:00,39.2,37.6,29.70,North,0,0.7,3.1,94,0.00,,,0.01,WUHU216HW,2013-03-24 06:39:00,
2013-03-24 01:40:00,39.2,37.6,29.70,North,0,0.7,3.1,94,0.00,,,0.01,WUHU216HW,2013-03-24 06:40:00,
2013-03-24 01:41:00,39.2,37.6,29.70,NNE,23,0.2,3.1,94,0.00,,,0.01,WUHU216HW,2013-03-24 06:41:00,
2013-03-24 01:45:00,39.2,37.6,29.71,NW,315,0.0,2.0,94,0.00,,,0.01,WUHU216HW,2013-03-24 06:45:00,
2013-03-24 01:49:00,39.2,37.6,29.70,NE,45,0.0,1.6,94,0.00,,,0.01,WUHU216HW,2013-03-24 06:49:00,
2013-03-24 01:50:00,39.2,37.6,29.70,NE,45,0.0,1.6,94,0.00,,,0.01,WUHU216HW,2013-03-24 06:50:00,
2013-03-24 01:53:00,39.2,37.6,29.70,NE,45,0.0,1.6,94,0.00,,,0.01,WUHU216HW,2013-03-24 06:53:00,
2013-03-24 01:56:00,39.2,37.6,29.70,NE,45,0.2,1.1,94,0.00,,,0.01,WUHU216HW,2013-03-24 06:56:00,
2013-03-24 01:59:00,39.2,37.6,29.70,NE,45,0.4,1.3,94,0.00,,,0.01,WUHU216HW,2013-03-24 06:59:00,
2013-03-24 02:00:00,39.2,37.6,29.70,NE,45,0.2,1.3,94,0.00,,,0.01,WUHU216HW,2013-03-24 07:00:00,
2013-03-24 02:01:00,39.2,37.6,29.70,NE,45,0.2,1.3,94,0.00,,,0.01,WUHU216HW,2013-03-24 07:01:00,
2013-03-24 02:02:00,39.2,37.6,29.71,NE,45,0.0,1.3,94,0.00,,,0.01,WUHU216HW,2013-03-24 07:02:00,
2013-03-24 02:03:00,39.2,37.6,29.71,WSW,248,0.9,1.3,94,0.00,,,0.01,WUHU216HW,2013-03-24 07:03:00,
2013-03-24 02:04:00,39.2,37.6,29.71,WSW,248,1.3,1.3,94,0.00,,,0.01,WUHU216HW,2013-03-24 07:04:00,
2013-03-24 02:06:00,39.2,37.6,29.72,SW,225,1.8,1.8,94,0.00,,,0.01,WUHU216HW,2013-03-24 07:06:00,
2013-03-24 02:08:00,39.2,37.6,29.73,WSW,248,3.1,3.1,94,0.00,,,0.01,WUHU216HW,2013-03-24 07:08:00,
2013-03-24 02:10:00,39.2,37.6,29.73,SW,225,4.0,4.5,94,0.00,,,0.01,WUHU216HW,2013-03-24 07:10:00,
2013-03-24 02:11:00,39.2,37.6,29.73,SW,225,4.0,4.5,94,0.00,,,0.01,WUHU216HW,2013-03-24 07:11:00,
2013-03-24 02:13:00,39.2,37.6,29.74,SW,225,3.4,4.5,94,0.00,,,0.01,WUHU216HW,2013-03-24 07:13:00,
2013-03-24 02:14:00,39.2,37.6,29.74,SW,225,2.5,4.5,94,0.02,,,0.04,WUHU216HW,2013-03-24 07:14:00,
2013-03-24 02:16:00,39.4,37.8,29.74,West,270,4.0,4.5,94,0.02,,,0.04,WUHU216HW,2013-03-24 07:16:00,
2013-03-24 02:18:00,39.4,37.8,29.73,WNW,293,1.1,4.5,94,0.02,,,0.04,WUHU216HW,2013-03-24 07:18:00,
2013-03-24 02:19:00,39.2,37.6,29.72,West,270,0.0,4.0,94,0.02,,,0.04,WUHU216HW,2013-03-24 07:19:00,
2013-03-24 02:21:00,39.2,37.6,29.72,ENE,68,0.7,4.0,94,0.02,,,0.04,WUHU216HW,2013-03-24 07:21:00,
2013-03-24 02:22:00,39.2,37.6,29.71,ESE,113,1.8,4.0,94,0.02,,,0.04,WUHU216HW,2013-03-24 07:22:00,
2013-03-24 02:25:00,39.2,37.9,29.70,ENE,68,1.1,4.0,95,0.05,,,0.06,WUHU216HW,2013-03-24 07:25:00,
2013-03-24 02:26:00,39.2,37.9,29.70,East,90,0.4,2.5,95,0.05,,,0.06,WUHU216HW,2013-03-24 07:26:00,
2013-03-24 02:27:00,39.2,37.9,29.70,East,90,0.7,2.5,95,0.05,,,0.06,WUHU216HW,2013-03-24 07:27:00,
2013-03-24 02:28:00,39.2,37.9,29.69,East,90,0.9,2.2,95,0.05,,,0.06,WUHU216HW,2013-03-24 07:28:00,
2013-03-24 02:30:00,39.2,37.9,29.70,East,90,0.7,2.2,95,0.05,,,0.06,WUHU216HW,2013-03-24 07:30:00,
2013-03-24 02:31:00,39.2,37.9,29.70,ESE,113,1.6,2.2,95,0.05,,,0.06,WUHU216HW,2013-03-24 07:31:00,
2013-03-24 02:32:00,39.2,37.9,29.70,ESE,113,1.6,2.2,95,0.05,,,0.06,WUHU216HW,2013-03-24 07:32:00,
2013-03-24 02:34:00,39.2,37.9,29.69,ESE,113,2.5,2.5,95,0.05,,,0.06,WUHU216HW,2013-03-24 07:34:00,
2013-03-24 02:35:00,39.2,37.9,29.68,East,90,2.2,2.5,95,0.05,,,0.06,WUHU216HW,2013-03-24 07:35:00,
2013-03-24 02:36:00,39.2,37.9,29.68,East,90,2.7,3.1,95,0.05,,,0.06,WUHU216HW,2013-03-24 07:36:00,
2013-03-24 02:37:00,39.2,37.9,29.68,East,90,2.7,3.1,95,0.05,,,0.06,WUHU216HW,2013-03-24 07:37:00,
2013-03-24 02:38:00,39.2,37.9,29.68,East,90,2.5,3.4,95,0.05,,,0.06,WUHU216HW,2013-03-24 07:38:00,
2013-03-24 02:39:00,39.2,37.9,29.67,East,90,2.2,3.4,95,0.05,,,0.06,WUHU216HW,2013-03-24 07:39:00,
2013-03-24 02:41:00,39.2,37.9,29.67,East,90,2.5,3.4,95,0.05,,,0.06,WUHU216HW,2013-03-24 07:41:00,
2013-03-24 02:42:00,39.2,37.9,29.67,East,90,2.5,3.4,95,0.05,,,0.06,WUHU216HW,2013-03-24 07:42:00,
2013-03-24 02:44:00,39.2,37.9,29.66,East,90,3.4,4.7,95,0.05,,,0.06,WUHU216HW,2013-03-24 07:44:00,
2013-03-24 02:45:00,39.2,37.9,29.66,East,90,2.9,4.7,95,0.05,,,0.06,WUHU216HW,2013-03-24 07:45:00,
2013-03-24 02:47:00,39.2,37.9,29.66,ESE,113,2.7,4.7,95,0.05,,,0.06,WUHU216HW,2013-03-24 07:47:00,
2013-03-24 02:48:00,39.2,37.9,29.66,East,90,3.4,4.7,95,0.05,,,0.06,WUHU216HW,2013-03-24 07:48:00,
2013-03-24 02:49:00,39.2,37.9,29.66,ESE,113,3.4,4.7,95,0.05,,,0.06,WUHU216HW,2013-03-24 07:49:00,
2013-03-24 02:52:00,39.2,37.9,29.66,ESE,113,1.8,4.7,95,0.05,,,0.06,WUHU216HW,2013-03-24 07:52:00,
2013-03-24 02:53:00,39.2,37.9,29.66,ESE,113,0.9,4.3,95,0.05,,,0.06,WUHU216HW,2013-03-24 07:53:00,
2013-03-24 02:55:00,39.2,37.9,29.66,SE,135,1.1,4.0,95,0.05,,,0.06,WUHU216HW,2013-03-24 07:55:00,
2013-03-24 02:56:00,39.2,37.9,29.66,SE,135,1.1,3.6,95,0.05,,,0.06,WUHU216HW,2013-03-24 07:56:00,
2013-03-24 02:57:00,39.2,37.9,29.66,SE,135,1.1,3.6,95,0.05,,,0.06,WUHU216HW,2013-03-24 07:57:00,
2013-03-24 02:59:00,39.2,37.9,29.66,ESE,113,0.9,3.6,95,0.05,,,0.06,WUHU216HW,2013-03-24 07:59:00,
2013-03-24 03:00:00,39.2,37.9,29.66,SE,135,0.9,3.4,95,0.05,,,0.06,WUHU216HW,2013-03-24 08:00:00,
2013-03-24 03:02:00,39.2,37.9,29.65,ESE,113,2.0,2.0,95,0.05,,,0.06,WUHU216HW,2013-03-24 08:02:00,
2013-03-24 03:03:00,39.2,37.9,29.65,East,90,1.1,2.0,95,0.05,,,0.06,WUHU216HW,2013-03-24 08:03:00,
2013-03-24 03:04:00,39.4,38.1,29.65,SE,135,1.1,2.0,95,0.05,,,0.06,WUHU216HW,2013-03-24 08:04:00,
2013-03-24 03:06:00,39.4,38.1,29.66,SSW,203,0.9,2.0,95,0.05,,,0.06,WUHU216HW,2013-03-24 08:06:00,
2013-03-24 03:07:00,39.2,37.9,29.66,SW,225,0.4,2.0,95,0.05,,,0.06,WUHU216HW,2013-03-24 08:07:00,
2013-03-24 03:09:00,39.2,37.9,29.66,WSW,248,0.9,2.0,95,0.05,,,0.06,WUHU216HW,2013-03-24 08:09:00,
2013-03-24 03:10:00,39.4,38.1,29.66,WSW,248,2.5,2.9,95,0.05,,,0.06,WUHU216HW,2013-03-24 08:10:00,
2013-03-24 03:12:00,39.4,38.1,29.66,WSW,248,1.6,2.9,95,0.05,,,0.06,WUHU216HW,2013-03-24 08:12:00,
2013-03-24 03:14:00,39.4,38.1,29.67,WSW,248,2.9,3.1,95,0.02,,,0.06,WUHU216HW,2013-03-24 08:14:00,
2013-03-24 03:15:00,39.4,38.1,29.67,SSW,203,2.0,3.1,95,0.02,,,0.06,WUHU216HW,2013-03-24 08:15:00,
2013-03-24 03:17:00,39.4,38.1,29.67,SW,225,1.6,3.1,95,0.02,,,0.06,WUHU216HW,2013-03-24 08:17:00,
2013-03-24 03:18:00,39.4,38.1,29.67,SW,225,1.6,3.1,95,0.02,,,0.06,WUHU216HW,2013-03-24 08:18:00,
2013-03-24 03:19:00,39.4,38.1,29.67,WSW,248,0.7,3.1,95,0.02,,,0.06,WUHU216HW,2013-03-24 08:19:00,
2013-03-24 03:22:00,39.4,38.1,29.67,WSW,248,1.3,3.1,95,0.02,,,0.06,WUHU216HW,2013-03-24 08:22:00,
2013-03-24 03:23:00,39.4,38.1,29.67,WSW,248,1.3,3.1,95,0.02,,,0.06,WUHU216HW,2013-03-24 08:23:00,
2013-03-24 03:25:00,39.6,38.3,29.66,WSW,248,2.9,4.7,95,0.02,,,0.06,WUHU216HW,2013-03-24 08:25:00,
2013-03-24 03:26:00,39.4,38.1,29.66,West,270,3.4,4.7,95,0.00,,,0.06,WUHU216HW,2013-03-24 08:26:00,
2013-03-24 03:28:00,39.6,38.3,29.67,SW,225,3.4,4.7,95,0.00,,,0.06,WUHU216HW,2013-03-24 08:28:00,
2013-03-24 03:30:00,39.4,38.1,29.67,WSW,248,2.7,5.8,95,0.00,,,0.06,WUHU216HW,2013-03-24 08:30:00,
2013-03-24 03:32:00,39.4,38.1,29.67,WSW,248,4.0,5.8,95,0.00,,,0.06,WUHU216HW,2013-03-24 08:32:00,
2013-03-24 03:33:00,39.4,38.1,29.67,WSW,248,4.0,5.8,95,0.00,,,0.06,WUHU216HW,2013-03-24 08:33:00,
2013-03-24 03:36:00,39.4,38.1,29.67,West,270,4.0,6.0,95,0.00,,,0.06,WUHU216HW,2013-03-24 08:36:00,
2013-03-24 03:38:00,39.4,38.1,29.67,WSW,248,3.1,6.0,95,0.00,,,0.06,WUHU216HW,2013-03-24 08:38:00,
2013-03-24 03:40:00,39.4,38.1,29.66,WSW,248,5.4,6.0,95,0.00,,,0.06,WUHU216HW,2013-03-24 08:40:00,
2013-03-24 03:42:00,39.4,38.1,29.66,WSW,248,1.3,6.0,95,0.00,,,0.06,WUHU216HW,2013-03-24 08:42:00,
2013-03-24 03:43:00,39.4,38.1,29.66,WSW,248,4.5,6.0,95,0.00,,,0.06,WUHU216HW,2013-03-24 08:43:00,
2013-03-24 03:46:00,39.4,38.1,29.66,West,270,4.0,6.3,95,0.00,,,0.06,WUHU216HW,2013-03-24 08:46:00,
2013-03-24 03:47:00,39.4,38.1,29.66,SW,225,1.1,6.3,95,0.00,,,0.06,WUHU216HW,2013-03-24 08:47:00,
2013-03-24 03:48:00,39.4,38.1,29.66,SW,225,1.1,6.3,95,0.00,,,0.06,WUHU216HW,2013-03-24 08:48:00,
2013-03-24 03:50:00,39.2,37.9,29.66,WSW,248,1.8,6.3,95,0.00,,,0.06,WUHU216HW,2013-03-24 08:50:00,
2013-03-24 03:51:00,39.2,37.9,29.66,West,270,3.8,6.3,95,0.00,,,0.06,WUHU216HW,2013-03-24 08:51:00,
2013-03-24 03:53:00,39.2,37.9,29.66,SW,225,1.1,6.3,95,0.00,,,0.06,WUHU216HW,2013-03-24 08:53:00,
2013-03-24 03:54:00,39.2,37.9,29.66,WSW,248,4.7,6.3,95,0.00,,,0.06,WUHU216HW,2013-03-24 08:54:00,
2013-03-24 03:57:00,39.2,37.9,29.66,SW,225,6.9,6.9,95,0.00,,,0.06,WUHU216HW,2013-03-24 08:57:00,
2013-03-24 03:59:00,39.2,37.9,29.66,SW,225,7.2,7.2,95,0.00,,,0.06,WUHU216HW,2013-03-24 08:59:00,
2013-03-24 04:00:00,39.2,37.9,29.66,SW,225,6.3,7.2,95,0.00,,,0.06,WUHU216HW,2013-03-24 09:00:00,
2013-03-24 04:02:00,39.2,37.9,29.66,NW,315,6.7,7.2,95,0.00,,,0.06,WUHU216HW,2013-03-24 09:02:00,
2013-03-24 04:03:00,39.2,37.9,29.66,West,270,5.8,7.2,95,0.00,,,0.06,WUHU216HW,2013-03-24 09:03:00,
2013-03-24 04:04:00,39.2,37.9,29.66,West,270,5.8,7.2,95,0.00,,,0.06,WUHU216HW,2013-03-24 09:04:00,
2013-03-24 04:05:00,39.2,37.9,29.66,WSW,248,5.6,7.2,95,0.00,,,0.06,WUHU216HW,2013-03-24 09:05:00,
2013-03-24 04:06:00,39.2,37.9,29.66,SSW,203,2.5,7.2,95,0.00,,,0.06,WUHU216HW,2013-03-24 09:06:00,
2013-03-24 04:08:00,39.2,37.9,29.66,SW,225,4.9,7.2,95,0.00,,,0.06,WUHU216HW,2013-03-24 09:08:00,
2013-03-24 04:09:00,39.2,37.9,29.66,SW,225,4.9,7.2,95,0.00,,,0.06,WUHU216HW,2013-03-24 09:09:00,
2013-03-24 04:10:00,39.2,37.9,29.65,SSW,203,4.5,7.2,95,0.00,,,0.06,WUHU216HW,2013-03-24 09:10:00,
2013-03-24 04:12:00,39.2,37.9,29.65,WSW,248,2.0,7.2,95,0.00,,,0.06,WUHU216HW,2013-03-24 09:12:00,
2013-03-24 04:14:00,39.2,37.9,29.65,WSW,248,4.0,7.2,95,0.00,,,0.06,WUHU216HW,2013-03-24 09:14:00,
2013-03-24 04:17:00,39.2,37.9,29.65,SSW,203,4.7,6.5,95,0.00,,,0.06,WUHU216HW,2013-03-24 09:17:00,
2013-03-24 04:18:00,39.2,37.9,29.65,WSW,248,6.9,6.9,95,0.00,,,0.06,WUHU216HW,2013-03-24 09:18:00,
2013-03-24 04:19:00,39.2,37.9,29.65,WSW,248,6.9,6.9,95,0.00,,,0.06,WUHU216HW,2013-03-24 09:19:00,
2013-03-24 04:21:00,39.1,37.7,29.65,WSW,248,3.4,8.1,95,0.00,,,0.06,WUHU216HW,2013-03-24 09:21:00,
2013-03-24 04:23:00,38.7,37.4,29.65,WSW,248,7.2,11.2,95,0.00,,,0.06,WUHU216HW,2013-03-24 09:23:00,
2013-03-24 04:24:00,38.7,37.4,29.65,WSW,248,7.2,11.2,95,0.00,,,0.06,WUHU216HW,2013-03-24 09:24:00,
2013-03-24 04:25:00,38.5,37.2,29.65,WSW,248,6.3,11.2,95,0.00,,,0.06,WUHU216HW,2013-03-24 09:25:00,
2013-03-24 04:27:00,38.3,37.0,29.65,West,270,8.3,11.2,95,0.00,,,0.06,WUHU216HW,2013-03-24 09:27:00,
2013-03-24 04:29:00,38.2,36.8,29.65,NW,315,7.2,11.2,95,0.00,,,0.06,WUHU216HW,2013-03-24 09:29:00,
2013-03-24 04:30:00,38.0,36.6,29.65,WSW,248,11.4,11.4,95,0.00,,,0.06,WUHU216HW,2013-03-24 09:30:00,
2013-03-24 04:31:00,37.8,36.5,29.65,WNW,293,8.5,11.4,95,0.00,,,0.06,WUHU216HW,2013-03-24 09:31:00,
2013-03-24 04:33:00,37.8,36.5,29.65,WNW,293,7.6,11.4,95,0.00,,,0.06,WUHU216HW,2013-03-24 09:33:00,
2013-03-24 04:34:00,37.8,36.5,29.65,WNW,293,7.6,11.4,95,0.00,,,0.06,WUHU216HW,2013-03-24 09:34:00,
2013-03-24 04:36:00,37.6,36.3,29.65,SW,225,4.7,11.4,95,0.00,,,0.06,WUHU216HW,2013-03-24 09:36:00,
2013-03-24 04:39:00,37.4,36.1,29.66,West,270,3.6,11.4,95,0.00,,,0.06,WUHU216HW,2013-03-24 09:39:00,
2013-03-24 04:40:00,37.4,36.1,29.66,SW,225,7.4,11.4,95,0.00,,,0.06,WUHU216HW,2013-03-24 09:40:00,
2013-03-24 04:41:00,37.4,36.1,29.66,West,270,7.6,11.4,95,0.00,,,0.06,WUHU216HW,2013-03-24 09:41:00,
2013-03-24 04:44:00,37.1,35.7,29.66,West,270,14.3,14.3,95,0.00,,,0.06,WUHU216HW,2013-03-24 09:44:00,
2013-03-24 04:45:00,36.9,35.6,29.66,West,270,13.0,14.3,95,0.00,,,0.06,WUHU216HW,2013-03-24 09:45:00,
2013-03-24 04:46:00,36.7,35.4,29.66,West,270,12.3,14.3,95,0.00,,,0.06,WUHU216HW,2013-03-24 09:46:00,
2013-03-24 04:49:00,36.5,35.2,29.66,WSW,248,8.1,14.3,95,0.00,,,0.06,WUHU216HW,2013-03-24 09:49:00,
2013-03-24 04:50:00,36.4,35.0,29.67,West,270,9.2,14.3,95,0.00,,,0.06,WUHU216HW,2013-03-24 09:50:00,
2013-03-24 04:52:00,36.2,34.8,29.67,West,270,6.3,15.4,95,0.00,,,0.06,WUHU216HW,2013-03-24 09:52:00,
2013-03-24 04:53:00,36.0,34.7,29.67,West,270,14.1,15.7,95,0.00,,,0.06,WUHU216HW,2013-03-24 09:53:00,
2013-03-24 04:54:00,36.0,34.7,29.67,West,270,14.1,15.7,95,0.00,,,0.06,WUHU216HW,2013-03-24 09:54:00,
2013-03-24 04:55:00,36.0,34.7,29.67,West,270,9.6,15.7,95,0.00,,,0.06,WUHU216HW,2013-03-24 09:55:00,
2013-03-24 04:56:00,35.8,34.5,29.67,WSW,248,9.8,15.7,95,0.00,,,0.06,WUHU216HW,2013-03-24 09:56:00,
2013-03-24 04:59:00,35.6,34.3,29.66,WSW,248,7.8,15.7,95,0.00,,,0.06,WUHU216HW,2013-03-24 09:59:00,
2013-03-24 05:01:00,35.6,34.3,29.66,WNW,293,10.1,15.7,95,0.00,,,0.06,WUHU216HW,2013-03-24 10:01:00,
2013-03-24 05:02:00,35.5,34.1,29.66,NW,315,8.3,15.7,95,0.00,,,0.06,WUHU216HW,2013-03-24 10:02:00,
2013-03-24 05:04:00,35.3,33.9,29.66,WSW,248,9.2,13.0,95,0.00,,,0.06,WUHU216HW,2013-03-24 10:04:00,
2013-03-24 05:05:00,35.1,33.8,29.66,WSW,248,5.4,13.0,95,0.00,,,0.06,WUHU216HW,2013-03-24 10:05:00,
2013-03-24 05:07:00,34.9,33.3,29.66,WNW,293,14.5,14.5,94,0.00,,,0.06,WUHU216HW,2013-03-24 10:07:00,
2013-03-24 05:08:00,34.9,33.3,29.67,WSW,248,7.4,14.5,94,0.00,,,0.06,WUHU216HW,2013-03-24 10:08:00,
2013-03-24 05:09:00,34.9,33.3,29.67,WSW,248,7.4,14.5,94,0.00,,,0.06,WUHU216HW,2013-03-24 10:09:00,
2013-03-24 05:10:00,34.9,33.3,29.67,SW,225,6.3,14.5,94,0.00,,,0.06,WUHU216HW,2013-03-24 10:10:00,
2013-03-24 05:11:00,34.7,33.1,29.67,West,270,9.2,14.5,94,0.00,,,0.06,WUHU216HW,2013-03-24 10:11:00,
2013-03-24 05:13:00,34.7,33.1,29.67,SW,225,6.9,14.5,94,0.00,,,0.06,WUHU216HW,2013-03-24 10:13:00,
2013-03-24 05:14:00,34.6,32.9,29.67,West,270,7.4,14.5,94,0.00,,,0.06,WUHU216HW,2013-03-24 10:14:00,
2013-03-24 05:15:00,34.6,32.9,29.67,WSW,248,6.9,14.5,94,0.00,,,0.06,WUHU216HW,2013-03-24 10:15:00,
2013-03-24 05:17:00,34.4,32.8,29.67,WNW,293,7.8,14.5,94,0.00,,,0.06,WUHU216HW,2013-03-24 10:17:00,
2013-03-24 05:18:00,34.4,32.8,29.66,West,270,9.6,12.1,94,0.00,,,0.06,WUHU216HW,2013-03-24 10:18:00,
2013-03-24 05:20:00,34.2,32.6,29.67,West,270,5.4,12.5,94,0.00,,,0.06,WUHU216HW,2013-03-24 10:20:00,
2013-03-24 05:21:00,34.2,32.6,29.66,NW,315,7.8,12.5,94,0.00,,,0.06,WUHU216HW,2013-03-24 10:21:00,
2013-03-24 05:23:00,34.2,32.6,29.66,West,270,10.1,12.5,94,0.00,,,0.06,WUHU216HW,2013-03-24 10:23:00,
2013-03-24 05:25:00,34.0,32.4,29.66,SW,225,8.3,12.5,94,0.00,,,0.06,WUHU216HW,2013-03-24 10:25:00,
2013-03-24 05:27:00,33.8,32.2,29.67,West,270,10.1,12.5,94,0.00,,,0.06,WUHU216HW,2013-03-24 10:27:00,
2013-03-24 05:29:00,33.8,32.2,29.67,West,270,7.6,12.5,94,0.00,,,0.06,WUHU216HW,2013-03-24 10:29:00,
2013-03-24 05:30:00,33.8,32.2,29.67,West,270,5.8,10.1,94,0.00,,,0.06,WUHU216HW,2013-03-24 10:30:00,
2013-03-24 05:31:00,33.8,32.2,29.67,West,270,5.4,10.1,94,0.00,,,0.06,WUHU216HW,2013-03-24 10:31:00,
2013-03-24 05:32:00,33.7,32.0,29.67,WSW,248,4.7,10.1,94,0.00,,,0.06,WUHU216HW,2013-03-24 10:32:00,
2013-03-24 05:35:00,33.7,31.8,29.67,WNW,293,4.7,10.1,93,0.00,,,0.06,WUHU216HW,2013-03-24 10:35:00,
2013-03-24 05:36:00,33.5,31.6,29.67,WNW,293,10.3,10.3,93,0.00,,,0.06,WUHU216HW,2013-03-24 10:36:00,
2013-03-24 05:37:00,33.5,31.6,29.67,West,270,8.3,11.2,93,0.00,,,0.06,WUHU216HW,2013-03-24 10:37:00,
2013-03-24 05:40:00,33.1,31.3,29.67,WSW,248,6.3,11.2,93,0.00,,,0.06,WUHU216HW,2013-03-24 10:40:00,
2013-03-24 05:42:00,33.1,31.3,29.67,WSW,248,4.9,11.2,93,0.00,,,0.06,WUHU216HW,2013-03-24 10:42:00,
2013-03-24 05:43:00,32.9,31.2,29.67,West,270,6.9,11.2,93,0.00,,,0.06,WUHU216HW,2013-03-24 10:43:00,
2013-03-24 05:45:00,32.9,31.2,29.67,WNW,293,4.3,11.2,93,0.00,,,0.06,WUHU216HW,2013-03-24 10:45:00,
2013-03-24 05:46:00,32.9,31.2,29.67,West,270,10.7,11.2,93,0.00,,,0.06,WUHU216HW,2013-03-24 10:46:00,
2013-03-24 05:47:00,32.9,31.2,29.68,West,270,6.3,10.7,93,0.00,,,0.06,WUHU216HW,2013-03-24 10:47:00,
2013-03-24 05:50:00,32.8,31.0,29.67,WSW,248,8.5,10.7,93,0.00,,,0.06,WUHU216HW,2013-03-24 10:50:00,
2013-03-24 05:52:00,32.8,31.0,29.67,West,270,7.2,10.7,93,0.00,,,0.06,WUHU216HW,2013-03-24 10:52:00,
2013-03-24 05:54:00,32.8,31.0,29.68,WNW,293,4.9,10.7,93,0.00,,,0.06,WUHU216HW,2013-03-24 10:54:00,
2013-03-24 05:55:00,32.8,31.0,29.68,WNW,293,4.9,10.7,93,0.00,,,0.06,WUHU216HW,2013-03-24 10:55:00,
2013-03-24 05:56:00,32.8,31.0,29.68,West,270,8.7,10.7,93,0.00,,,0.06,WUHU216HW,2013-03-24 10:56:00,
2013-03-24 06:00:00,32.8,31.2,29.68,WNW,293,5.1,9.8,94,0.00,,,0.06,WUHU216HW,2013-03-24 11:00:00,
2013-03-24 06:02:00,32.8,31.0,29.68,West,270,6.5,9.8,93,0.00,,,0.06,WUHU216HW,2013-03-24 11:02:00,
2013-03-24 06:03:00,32.8,31.2,29.68,WSW,248,7.4,9.8,94,0.00,,,0.06,WUHU216HW,2013-03-24 11:03:00,
2013-03-24 06:04:00,32.8,31.2,29.68,NW,315,5.4,9.8,94,0.00,,,0.06,WUHU216HW,2013-03-24 11:04:00,
2013-03-24 06:05:00,32.8,31.2,29.68,NW,315,5.4,9.8,94,0.00,,,0.06,WUHU216HW,2013-03-24 11:05:00,
2013-03-24 06:06:00,32.6,31.1,29.68,WSW,248,8.5,11.4,94,0.00,,,0.06,WUHU216HW,2013-03-24 11:06:00,
2013-03-24 06:07:00,32.6,31.1,29.68,WNW,293,4.9,11.4,94,0.00,,,0.06,WUHU216HW,2013-03-24 11:07:00,
2013-03-24 06:09:00,32.6,31.1,29.68,West,270,5.4,11.4,94,0.00,,,0.06,WUHU216HW,2013-03-24 11:09:00,
2013-03-24 06:11:00,32.6,31.1,29.68,WNW,293,8.5,11.4,94,0.00,,,0.06,WUHU216HW,2013-03-24 11:11:00,
2013-03-24 06:12:00,32.6,31.1,29.68,West,270,10.5,11.4,94,0.00,,,0.06,WUHU216HW,2013-03-24 11:12:00,
2013-03-24 06:13:00,32.6,30.8,29.68,West,270,6.0,11.4,93,0.00,,,0.06,WUHU216HW,2013-03-24 11:13:00,
2013-03-24 06:14:00,32.6,31.1,29.68,West,270,6.5,11.4,94,0.00,,,0.06,WUHU216HW,2013-03-24 11:14:00,
2013-03-24 06:16:00,32.4,30.9,29.68,SW,225,5.4,10.5,94,0.00,,,0.06,WUHU216HW,2013-03-24 11:16:00,
2013-03-24 06:18:00,32.4,30.9,29.68,West,270,3.6,10.5,94,0.00,,,0.06,WUHU216HW,2013-03-24 11:18:00,
2013-03-24 06:19:00,32.4,30.9,29.68,WNW,293,8.1,10.5,94,0.00,,,0.06,WUHU216HW,2013-03-24 11:19:00,
2013-03-24 06:21:00,32.4,30.9,29.68,West,270,7.4,10.5,94,0.00,,,0.06,WUHU216HW,2013-03-24 11:21:00,
2013-03-24 06:23:00,32.4,30.9,29.68,West,270,6.3,9.4,94,0.00,,,0.06,WUHU216HW,2013-03-24 11:23:00,
2013-03-24 06:25:00,32.4,30.9,29.68,West,270,9.8,9.8,94,0.00,,,0.06,WUHU216HW,2013-03-24 11:25:00,
2013-03-24 06:26:00,32.4,30.9,29.68,West,270,9.8,9.8,94,0.00,,,0.06,WUHU216HW,2013-03-24 11:26:00,
2013-03-24 06:27:00,32.4,30.9,29.68,WSW,248,7.6,9.8,94,0.00,,,0.06,WUHU216HW,2013-03-24 11:27:00,
2013-03-24 06:28:00,32.4,30.9,29.68,West,270,4.7,9.8,94,0.00,,,0.06,WUHU216HW,2013-03-24 11:28:00,
2013-03-24 06:30:00,32.4,30.9,29.68,West,270,3.4,9.8,94,0.00,,,0.06,WUHU216HW,2013-03-24 11:30:00,
2013-03-24 06:31:00,32.4,30.9,29.68,West,270,3.4,9.8,94,0.00,,,0.06,WUHU216HW,2013-03-24 11:31:00,
2013-03-24 06:35:00,32.4,30.9,29.69,WSW,248,7.4,9.8,94,0.00,,,0.06,WUHU216HW,2013-03-24 11:35:00,
2013-03-24 06:36:00,32.4,30.9,29.68,West,270,7.4,9.2,94,0.00,,,0.06,WUHU216HW,2013-03-24 11:36:00,
2013-03-24 06:37:00,32.4,30.9,29.68,West,270,10.5,10.5,94,0.00,,,0.06,WUHU216HW,2013-03-24 11:37:00,
2013-03-24 06:39:00,32.4,30.9,29.69,West,270,8.3,10.5,94,0.00,,,0.06,WUHU216HW,2013-03-24 11:39:00,
2013-03-24 06:40:00,32.4,30.9,29.68,West,270,5.8,10.5,94,0.00,,,0.06,WUHU216HW,2013-03-24 11:40:00,
2013-03-24 06:41:00,32.4,30.9,29.68,West,270,5.8,10.5,94,0.00,,,0.06,WUHU216HW,2013-03-24 11:41:00,
2013-03-24 06:42:00,32.4,30.9,29.69,West,270,3.6,10.5,94,0.00,,,0.06,WUHU216HW,2013-03-24 11:42:00,
2013-03-24 06:43:00,32.4,30.9,29.69,WNW,293,8.7,10.5,94,0.00,,,0.06,WUHU216HW,2013-03-24 11:43:00,
2013-03-24 06:46:00,32.2,30.7,29.69,WNW,293,11.4,13.4,94,0.00,,,0.06,WUHU216HW,2013-03-24 11:46:00,
2013-03-24 06:47:00,32.4,30.9,29.69,West,270,9.2,13.4,94,0.00,,,0.06,WUHU216HW,2013-03-24 11:47:00,
2013-03-24 06:48:00,32.4,30.9,29.69,WSW,248,5.6,13.4,94,0.00,,,0.06,WUHU216HW,2013-03-24 11:48:00,
2013-03-24 06:50:00,32.4,30.9,29.69,West,270,6.3,13.4,94,0.00,,,0.06,WUHU216HW,2013-03-24 11:50:00,
2013-03-24 06:52:00,32.4,30.9,29.69,WNW,293,11.2,13.4,94,0.00,,,0.06,WUHU216HW,2013-03-24 11:52:00,
2013-03-24 06:54:00,32.4,30.9,29.69,WSW,248,7.6,13.4,94,0.00,,,0.06,WUHU216HW,2013-03-24 11:54:00,
2013-03-24 06:55:00,32.2,30.7,29.69,West,270,9.2,13.4,94,0.00,,,0.06,WUHU216HW,2013-03-24 11:55:00,
2013-03-24 06:56:00,32.2,30.7,29.69,West,270,10.1,12.8,94,0.00,,,0.06,WUHU216HW,2013-03-24 11:56:00,
2013-03-24 06:57:00,32.2,30.7,29.69,West,270,10.1,12.8,94,0.00,,,0.06,WUHU216HW,2013-03-24 11:57:00,
2013-03-24 06:58:00,32.2,30.7,29.69,West,270,6.7,12.8,94,0.00,,,0.06,WUHU216HW,2013-03-24 11:58:00,
2013-03-24 06:59:00,32.2,30.7,29.69,West,270,7.8,12.8,94,0.00,,,0.06,WUHU216HW,2013-03-24 11:59:00,
2013-03-24 07:01:00,32.2,30.7,29.69,West,270,6.5,12.8,94,0.00,,,0.06,WUHU216HW,2013-03-24 12:01:00,
2013-03-24 07:02:00,32.2,30.7,29.69,West,270,4.9,12.8,94,0.00,,,0.06,WUHU216HW,2013-03-24 12:02:00,
2013-03-24 07:03:00,32.2,30.7,29.69,West,270,8.5,12.8,94,0.00,,,0.06,WUHU216HW,2013-03-24 12:03:00,
2013-03-24 07:05:00,32.2,30.7,29.70,West,270,6.0,10.7,94,0.00,,,0.06,WUHU216HW,2013-03-24 12:05:00,
2013-03-24 07:07:00,32.2,30.7,29.70,West,270,5.8,9.8,94,0.00,,,0.06,WUHU216HW,2013-03-24 12:07:00,
2013-03-24 07:09:00,32.2,30.7,29.70,West,270,10.1,11.6,94,0.00,,,0.06,WUHU216HW,2013-03-24 12:09:00,
2013-03-24 07:11:00,32.0,30.5,29.70,West,270,7.8,11.6,94,0.00,,,0.06,WUHU216HW,2013-03-24 12:11:00,
2013-03-24 07:12:00,32.0,30.5,29.70,West,270,9.6,11.6,94,0.00,,,0.06,WUHU216HW,2013-03-24 12:12:00,
2013-03-24 07:15:00,32.0,30.5,29.70,West,270,9.2,14.8,94,0.00,,,0.06,WUHU216HW,2013-03-24 12:15:00,
2013-03-24 07:16:00,32.0,30.5,29.70,West,270,12.1,14.8,94,0.00,,,0.06,WUHU216HW,2013-03-24 12:16:00,
2013-03-24 07:17:00,32.0,30.5,29.70,West,270,12.1,14.8,94,0.00,,,0.06,WUHU216HW,2013-03-24 12:17:00,
2013-03-24 07:19:00,32.0,30.5,29.70,West,270,9.4,14.8,94,0.00,,,0.06,WUHU216HW,2013-03-24 12:19:00,
2013-03-24 07:20:00,32.0,30.5,29.70,West,270,8.3,14.8,94,0.00,,,0.06,WUHU216HW,2013-03-24 12:20:00,
2013-03-24 07:22:00,32.0,30.5,29.70,West,270,4.7,14.8,94,0.00,,,0.06,WUHU216HW,2013-03-24 12:22:00,
2013-03-24 07:25:00,32.0,30.5,29.71,West,270,5.8,16.1,94,0.00,,,0.06,WUHU216HW,2013-03-24 12:25:00,
2013-03-24 07:27:00,31.9,30.3,29.71,WNW,293,14.5,16.1,94,0.00,,,0.06,WUHU216HW,2013-03-24 12:27:00,
2013-03-24 07:28:00,31.9,30.3,29.71,West,270,8.5,16.1,94,0.00,,,0.06,WUHU216HW,2013-03-24 12:28:00,
2013-03-24 07:30:00,31.9,30.3,29.71,WNW,293,10.3,16.1,94,0.00,,,0.06,WUHU216HW,2013-03-24 12:30:00,
2013-03-24 07:31:00,31.9,30.3,29.71,NW,315,6.9,16.1,94,0.00,,,0.06,WUHU216HW,2013-03-24 12:31:00,
2013-03-24 07:33:00,31.9,30.3,29.71,West,270,9.2,16.1,94,0.00,,,0.06,WUHU216HW,2013-03-24 12:33:00,
2013-03-24 07:35:00,31.7,30.2,29.71,WNW,293,14.3,15.0,94,0.00,,,0.06,WUHU216HW,2013-03-24 12:35:00,
2013-03-24 07:38:00,31.7,30.2,29.71,SW,225,11.2,15.0,94,0.00,,,0.06,WUHU216HW,2013-03-24 12:38:00,
2013-03-24 07:40:00,31.7,30.2,29.71,West,270,7.4,14.5,94,0.00,,,0.06,WUHU216HW,2013-03-24 12:40:00,
2013-03-24 07:43:00,31.7,30.2,29.71,NNW,338,7.2,14.3,94,0.00,,,0.06,WUHU216HW,2013-03-24 12:43:00,
2013-03-24 07:45:00,31.5,30.0,29.71,WNW,293,8.5,14.3,94,0.00,,,0.06,WUHU216HW,2013-03-24 12:45:00,
2013-03-24 07:47:00,31.5,30.0,29.71,West,270,9.8,13.0,94,0.00,,,0.06,WUHU216HW,2013-03-24 12:47:00,
2013-03-24 07:48:00,31.5,30.0,29.71,West,270,13.2,14.8,94,0.00,,,0.06,WUHU216HW,2013-03-24 12:48:00,
2013-03-24 07:49:00,31.5,30.0,29.71,WNW,293,12.3,14.8,94,0.00,,,0.06,WUHU216HW,2013-03-24 12:49:00,
2013-03-24 07:52:00,31.5,30.0,29.71,West,270,9.4,14.8,94,0.00,,,0.06,WUHU216HW,2013-03-24 12:52:00,
2013-03-24 07:53:00,31.5,30.0,29.71,West,270,12.3,14.8,94,0.00,,,0.06,WUHU216HW,2013-03-24 12:53:00,
2013-03-24 07:54:00,31.5,30.0,29.71,West,270,12.3,14.8,94,0.00,,,0.06,WUHU216HW,2013-03-24 12:54:00,
2013-03-24 07:55:00,31.3,29.8,29.71,WNW,293,10.1,14.8,94,0.00,,,0.06,WUHU216HW,2013-03-24 12:55:00,
2013-03-24 07:56:00,31.3,29.8,29.71,WNW,293,6.9,14.8,94,0.00,,,0.06,WUHU216HW,2013-03-24 12:56:00,
2013-03-24 07:59:00,31.3,29.8,29.71,WNW,293,8.5,13.6,94,0.00,,,0.06,WUHU216HW,2013-03-24 12:59:00,
2013-03-24 08:00:00,31.3,29.8,29.71,WNW,293,12.1,14.3,94,0.00,,,0.06,WUHU216HW,2013-03-24 13:00:00,
2013-03-24 08:01:00,31.3,29.8,29.72,WNW,293,6.5,14.3,94,0.00,,,0.06,WUHU216HW,2013-03-24 13:01:00,
2013-03-24 08:03:00,31.3,29.8,29.72,West,270,4.7,14.3,94,0.00,,,0.06,WUHU216HW,2013-03-24 13:03:00,
2013-03-24 08:04:00,31.3,29.8,29.72,West,270,7.4,14.3,94,0.00,,,0.06,WUHU216HW,2013-03-24 13:04:00,
2013-03-24 08:05:00,31.3,29.8,29.72,West,270,6.5,14.3,94,0.00,,,0.06,WUHU216HW,2013-03-24 13:05:00,
2013-03-24 08:08:00,31.3,29.8,29.72,WSW,248,5.4,14.3,94,0.00,,,0.06,WUHU216HW,2013-03-24 13:08:00,
2013-03-24 08:09:00,31.3,29.8,29.72,WSW,248,5.4,14.3,94,0.00,,,0.06,WUHU216HW,2013-03-24 13:09:00,
2013-03-24 08:10:00,31.3,29.8,29.72,NNW,338,5.8,12.1,94,0.00,,,0.06,WUHU216HW,2013-03-24 13:10:00,
2013-03-24 08:12:00,31.3,29.8,29.72,WNW,293,8.9,15.7,94,0.00,,,0.06,WUHU216HW,2013-03-24 13:12:00,
2013-03-24 08:14:00,31.1,29.6,29.73,West,270,6.9,15.7,94,0.00,,,0.06,WUHU216HW,2013-03-24 13:14:00,
2013-03-24 08:15:00,31.3,29.8,29.73,West,270,7.8,15.7,94,0.00,,,0.06,WUHU216HW,2013-03-24 13:15:00,
2013-03-24 08:16:00,31.1,29.6,29.73,NNW,338,12.1,15.7,94,0.00,,,0.06,WUHU216HW,2013-03-24 13:16:00,
2013-03-24 08:18:00,31.1,29.6,29.73,NNW,338,8.3,15.7,94,0.00,,,0.06,WUHU216HW,2013-03-24 13:18:00,
2013-03-24 08:19:00,31.1,29.6,29.73,West,270,5.6,15.7,94,0.00,,,0.06,WUHU216HW,2013-03-24 13:19:00,
2013-03-24 08:21:00,31.1,29.6,29.73,West,270,10.3,15.7,94,0.00,,,0.06,WUHU216HW,2013-03-24 13:21:00,
2013-03-24 08:22:00,31.1,29.6,29.73,West,270,5.4,14.8,94,0.00,,,0.06,WUHU216HW,2013-03-24 13:22:00,
2013-03-24 08:24:00,31.1,29.6,29.73,NW,315,9.6,14.8,94,0.00,,,0.06,WUHU216HW,2013-03-24 13:24:00,
2013-03-24 08:25:00,31.0,29.4,29.73,NW,315,12.8,14.8,94,0.00,,,0.06,WUHU216HW,2013-03-24 13:25:00,
2013-03-24 08:27:00,31.0,29.4,29.73,WNW,293,6.9,14.3,94,0.00,,,0.06,WUHU216HW,2013-03-24 13:27:00,
2013-03-24 08:30:00,31.0,29.4,29.73,NNW,338,7.8,14.3,94,0.00,,,0.06,WUHU216HW,2013-03-24 13:30:00,
2013-03-24 08:31:00,31.0,29.4,29.73,WNW,293,7.6,14.3,94,0.00,,,0.06,WUHU216HW,2013-03-24 13:31:00,
2013-03-24 08:33:00,31.0,29.4,29.74,WNW,293,9.8,14.3,94,0.00,,,0.06,WUHU216HW,2013-03-24 13:33:00,
2013-03-24 08:34:00,31.0,29.4,29.74,NW,315,11.0,14.3,94,0.00,,,0.06,WUHU216HW,2013-03-24 13:34:00,
2013-03-24 08:35:00,31.0,29.4,29.74,NW,315,11.0,14.3,94,0.00,,,0.06,WUHU216HW,2013-03-24 13:35:00,
2013-03-24 08:37:00,30.8,29.3,29.74,WSW,248,6.9,14.5,94,0.00,,,0.06,WUHU216HW,2013-03-24 13:37:00,
2013-03-24 08:40:00,30.8,29.3,29.74,NW,315,8.9,14.5,94,0.00,,,0.06,WUHU216HW,2013-03-24 13:40:00,
2013-03-24 08:41:00,30.8,29.3,29.74,WNW,293,7.6,14.5,94,0.00,,,0.06,WUHU216HW,2013-03-24 13:41:00,
2013-03-24 08:42:00,30.8,29.3,29.75,West,270,11.0,14.5,94,0.00,,,0.06,WUHU216HW,2013-03-24 13:42:00,
2013-03-24 08:44:00,30.8,29.0,29.75,NW,315,8.1,14.5,93,0.00,,,0.06,WUHU216HW,2013-03-24 13:44:00,
2013-03-24 08:45:00,30.8,29.0,29.75,NW,315,8.1,14.5,93,0.00,,,0.06,WUHU216HW,2013-03-24 13:45:00,
2013-03-24 08:47:00,30.8,29.0,29.75,West,270,9.4,13.2,93,0.00,,,0.06,WUHU216HW,2013-03-24 13:47:00,
2013-03-24 08:49:00,30.8,29.0,29.75,WNW,293,7.8,13.0,93,0.00,,,0.06,WUHU216HW,2013-03-24 13:49:00,
2013-03-24 08:50:00,30.8,29.0,29.75,WNW,293,7.8,13.0,93,0.00,,,0.06,WUHU216HW,2013-03-24 13:50:00,
2013-03-24 08:55:00,30.8,29.0,29.75,NNW,338,16.3,16.3,93,0.00,,,0.06,WUHU216HW,2013-03-24 13:55:00,
2013-03-24 08:56:00,30.8,29.0,29.76,WNW,293,10.5,17.2,93,0.00,,,0.06,WUHU216HW,2013-03-24 13:56:00,
2013-03-24 08:58:00,30.8,29.0,29.76,WNW,293,6.7,17.2,93,0.00,,,0.06,WUHU216HW,2013-03-24 13:58:00,
2013-03-24 09:00:00,30.8,29.0,29.76,West,270,11.4,17.2,93,0.00,,,0.06,WUHU216HW,2013-03-24 14:00:00,
2013-03-24 09:01:00,30.8,29.0,29.76,West,270,10.3,17.2,93,0.00,,,0.06,WUHU216HW,2013-03-24 14:01:00,
2013-03-24 09:02:00,31.0,29.2,29.76,WNW,293,10.3,17.2,93,0.00,,,0.06,WUHU216HW,2013-03-24 14:02:00,
2013-03-24 09:04:00,30.8,29.0,29.76,West,270,10.3,17.2,93,0.00,,,0.06,WUHU216HW,2013-03-24 14:04:00,
2013-03-24 09:05:00,30.8,29.0,29.76,West,270,10.3,17.2,93,0.00,,,0.06,WUHU216HW,2013-03-24 14:05:00,
2013-03-24 09:07:00,31.0,29.0,29.76,WNW,293,8.5,15.7,92,0.00,,,0.06,WUHU216HW,2013-03-24 14:07:00,
2013-03-24 09:08:00,31.0,29.0,29.76,NW,315,9.8,15.7,92,0.00,,,0.06,WUHU216HW,2013-03-24 14:08:00,
2013-03-24 09:10:00,30.8,28.8,29.76,NW,315,4.5,15.7,92,0.00,,,0.06,WUHU216HW,2013-03-24 14:10:00,
2013-03-24 09:12:00,31.0,29.0,29.77,WNW,293,10.7,15.7,92,0.00,,,0.06,WUHU216HW,2013-03-24 14:12:00,
2013-03-24 09:14:00,30.8,28.8,29.77,NNW,338,10.5,10.7,92,0.00,,,0.06,WUHU216HW,2013-03-24 14:14:00,
2013-03-24 09:15:00,30.8,28.8,29.77,NNW,338,10.5,10.7,92,0.00,,,0.06,WUHU216HW,2013-03-24 14:15:00,
2013-03-24 09:16:00,30.8,28.8,29.77,NW,315,6.7,10.7,92,0.00,,,0.06,WUHU216HW,2013-03-24 14:16:00,
2013-03-24 09:17:00,30.8,28.8,29.77,WSW,248,9.8,10.7,92,0.00,,,0.06,WUHU216HW,2013-03-24 14:17:00,
2013-03-24 09:20:00,30.8,28.8,29.77,NW,315,13.6,13.6,92,0.00,,,0.06,WUHU216HW,2013-03-24 14:20:00,
2013-03-24 09:21:00,30.8,28.8,29.77,NW,315,13.6,13.6,92,0.00,,,0.06,WUHU216HW,2013-03-24 14:21:00,
2013-03-24 09:22:00,30.8,28.5,29.77,WNW,293,16.1,16.1,91,0.00,,,0.06,WUHU216HW,2013-03-24 14:22:00,
2013-03-24 09:26:00,30.8,28.5,29.77,NW,315,10.5,16.1,91,0.00,,,0.06,WUHU216HW,2013-03-24 14:26:00,
2013-03-24 09:27:00,30.8,28.5,29.78,West,270,9.6,16.1,91,0.00,,,0.06,WUHU216HW,2013-03-24 14:27:00,
2013-03-24 09:28:00,30.8,28.5,29.78,WNW,293,12.1,16.1,91,0.00,,,0.06,WUHU216HW,2013-03-24 14:28:00,
2013-03-24 09:30:00,30.8,28.5,29.78,WNW,293,8.7,16.1,91,0.00,,,0.06,WUHU216HW,2013-03-24 14:30:00,
2013-03-24 09:31:00,30.8,28.5,29.78,WNW,293,13.9,16.1,91,0.00,,,0.06,WUHU216HW,2013-03-24 14:31:00,
2013-03-24 09:33:00,30.8,28.5,29.78,NW,315,9.2,13.9,91,0.00,,,0.06,WUHU216HW,2013-03-24 14:33:00,
2013-03-24 09:34:00,30.8,28.5,29.79,North,0,14.5,14.5,91,0.00,,,0.06,WUHU216HW,2013-03-24 14:34:00,
2013-03-24 09:35:00,30.8,28.5,29.79,WNW,293,9.2,14.5,91,0.00,,,0.06,WUHU216HW,2013-03-24 14:35:00,
2013-03-24 09:37:00,30.8,28.5,29.79,WNW,293,9.2,14.5,91,0.00,,,0.06,WUHU216HW,2013-03-24 14:37:00,
2013-03-24 09:40:00,30.8,28.5,29.79,NW,315,9.2,14.5,91,0.00,,,0.06,WUHU216HW,2013-03-24 14:40:00,
2013-03-24 09:41:00,30.8,28.5,29.79,WNW,293,12.3,14.5,91,0.00,,,0.06,WUHU216HW,2013-03-24 14:41:00,
2013-03-24 09:42:00,30.8,28.5,29.79,WNW,293,12.3,14.5,91,0.00,,,0.06,WUHU216HW,2013-03-24 14:42:00,
2013-03-24 09:43:00,30.8,28.5,29.79,WSW,248,7.6,14.5,91,0.00,,,0.06,WUHU216HW,2013-03-24 14:43:00,
2013-03-24 09:45:00,30.8,28.5,29.79,WNW,293,6.5,14.3,91,0.00,,,0.06,WUHU216HW,2013-03-24 14:45:00,
2013-03-24 09:47:00,30.8,28.5,29.79,NW,315,4.7,14.3,91,0.00,,,0.06,WUHU216HW,2013-03-24 14:47:00,
2013-03-24 09:48:00,30.8,28.5,29.79,NNW,338,8.5,14.3,91,0.00,,,0.06,WUHU216HW,2013-03-24 14:48:00,
2013-03-24 09:50:00,30.6,28.4,29.80,West,270,13.0,14.3,91,0.00,,,0.06,WUHU216HW,2013-03-24 14:50:00,
2013-03-24 09:52:00,30.6,28.4,29.80,West,270,13.0,14.3,91,0.00,,,0.06,WUHU216HW,2013-03-24 14:52:00,
2013-03-24 09:53:00,30.8,28.5,29.80,NW,315,15.7,18.1,91,0.00,,,0.06,WUHU216HW,2013-03-24 14:53:00,
2013-03-24 09:56:00,30.8,28.3,29.80,West,270,8.7,18.1,90,0.00,,,0.06,WUHU216HW,2013-03-24 14:56:00,
2013-03-24 09:57:00,30.8,28.3,29.80,West,270,8.7,18.1,90,0.00,,,0.06,WUHU216HW,2013-03-24 14:57:00,
2013-03-24 09:58:00,30.8,28.3,29.80,WNW,293,12.3,18.1,90,0.00,,,0.06,WUHU216HW,2013-03-24 14:58:00,
2013-03-24 10:01:00,30.6,28.1,29.80,West,270,11.4,15.7,90,0.00,,,0.06,WUHU216HW,2013-03-24 15:01:00,
2013-03-24 10:02:00,30.6,28.1,29.80,West,270,11.4,15.7,90,0.00,,,0.06,WUHU216HW,2013-03-24 15:02:00,
2013-03-24 10:05:00,30.6,28.1,29.81,NW,315,9.2,15.7,90,0.00,,,0.06,WUHU216HW,2013-03-24 15:05:00,
2013-03-24 10:07:00,30.6,28.1,29.81,NW,315,12.1,15.7,90,0.00,,,0.06,WUHU216HW,2013-03-24 15:07:00,
2013-03-24 10:08:00,30.6,28.1,29.81,NW,315,12.1,15.7,90,0.00,,,0.06,WUHU216HW,2013-03-24 15:08:00,
2013-03-24 10:09:00,30.8,28.3,29.81,West,270,8.9,12.1,90,0.00,,,0.06,WUHU216HW,2013-03-24 15:09:00,
2013-03-24 10:11:00,30.6,28.1,29.81,NNW,338,7.6,12.1,90,0.00,,,0.06,WUHU216HW,2013-03-24 15:11:00,
2013-03-24 10:12:00,30.6,28.1,29.82,West,270,6.3,12.1,90,0.00,,,0.06,WUHU216HW,2013-03-24 15:12:00,
2013-03-24 10:13:00,30.6,28.1,29.82,West,270,6.3,12.1,90,0.00,,,0.06,WUHU216HW,2013-03-24 15:13:00,
2013-03-24 10:14:00,30.6,28.1,29.82,WNW,293,9.8,13.4,90,0.00,,,0.06,WUHU216HW,2013-03-24 15:14:00,
2013-03-24 10:15:00,30.6,28.1,29.82,NNW,338,14.3,14.3,90,0.00,,,0.06,WUHU216HW,2013-03-24 15:15:00,
2013-03-24 10:17:00,30.8,28.3,29.82,NNW,338,11.6,14.3,90,0.00,,,0.06,WUHU216HW,2013-03-24 15:17:00,
2013-03-24 10:18:00,30.8,28.3,29.82,NNW,338,11.6,14.3,90,0.00,,,0.06,WUHU216HW,2013-03-24 15:18:00,
2013-03-24 10:22:00,30.6,28.4,29.83,NW,315,10.5,14.3,91,0.00,,,0.06,WUHU216HW,2013-03-24 15:22:00,
2013-03-24 10:23:00,30.6,28.4,29.83,NW,315,10.5,14.3,91,0.00,,,0.06,WUHU216HW,2013-03-24 15:23:00,
2013-03-24 10:25:00,30.6,28.4,29.83,NW,315,6.7,11.6,91,0.00,,,0.06,WUHU216HW,2013-03-24 15:25:00,
2013-03-24 10:28:00,30.6,28.4,29.83,NNW,338,11.4,13.4,91,0.00,,,0.06,WUHU216HW,2013-03-24 15:28:00,
2013-03-24 10:30:00,30.6,28.4,29.84,NW,315,10.5,13.4,91,0.00,,,0.06,WUHU216HW,2013-03-24 15:30:00,
2013-03-24 10:32:00,30.6,28.4,29.84,WNW,293,8.3,13.4,91,0.00,,,0.06,WUHU216HW,2013-03-24 15:32:00,
2013-03-24 10:33:00,30.6,28.4,29.84,WNW,293,8.3,13.4,91,0.00,,,0.06,WUHU216HW,2013-03-24 15:33:00,
2013-03-24 10:35:00,30.6,28.4,29.84,North,0,12.3,13.4,91,0.00,,,0.06,WUHU216HW,2013-03-24 15:35:00,
2013-03-24 10:38:00,30.6,28.4,29.84,West,270,8.3,14.8,91,0.00,,,0.06,WUHU216HW,2013-03-24 15:38:00,
2013-03-24 10:40:00,30.6,28.4,29.84,WSW,248,11.0,14.8,91,0.00,,,0.06,WUHU216HW,2013-03-24 15:40:00,
2013-03-24 10:41:00,30.6,28.4,29.84,West,270,15.7,15.7,91,0.00,,,0.06,WUHU216HW,2013-03-24 15:41:00,
2013-03-24 10:43:00,30.6,28.4,29.84,WNW,293,13.4,15.7,91,0.00,,,0.06,WUHU216HW,2013-03-24 15:43:00,
2013-03-24 10:44:00,30.6,28.4,29.84,West,270,10.5,15.7,91,0.00,,,0.06,WUHU216HW,2013-03-24 15:44:00,
2013-03-24 10:45:00,30.6,28.4,29.84,WNW,293,8.3,15.7,91,0.00,,,0.06,WUHU216HW,2013-03-24 15:45:00,
2013-03-24 10:48:00,30.6,28.4,29.84,NW,315,6.9,15.7,91,0.00,,,0.06,WUHU216HW,2013-03-24 15:48:00,
2013-03-24 10:49:00,30.6,28.4,29.85,NW,315,10.1,15.7,91,0.00,,,0.06,WUHU216HW,2013-03-24 15:49:00,
2013-03-24 10:51:00,30.6,28.4,29.85,WNW,293,10.3,13.4,91,0.00,,,0.06,WUHU216HW,2013-03-24 15:51:00,
2013-03-24 10:52:00,30.6,28.4,29.84,North,0,6.5,10.5,91,0.00,,,0.06,WUHU216HW,2013-03-24 15:52:00,
2013-03-24 10:53:00,30.6,28.4,29.84,North,0,6.5,10.5,91,0.00,,,0.06,WUHU216HW,2013-03-24 15:53:00,
2013-03-24 10:54:00,30.6,28.4,29.85,WNW,293,13.6,15.9,91,0.00,,,0.06,WUHU216HW,2013-03-24 15:54:00,
2013-03-24 10:56:00,30.8,28.5,29.85,West,270,6.3,15.9,91,0.00,,,0.06,WUHU216HW,2013-03-24 15:56:00,
2013-03-24 10:58:00,30.6,28.4,29.84,NNW,338,4.3,15.9,91,0.00,,,0.06,WUHU216HW,2013-03-24 15:58:00,
2013-03-24 11:00:00,30.8,28.5,29.84,NW,315,11.9,15.9,91,0.00,,,0.06,WUHU216HW,2013-03-24 16:00:00,
2013-03-24 11:02:00,30.8,28.5,29.84,WNW,293,9.6,15.9,91,0.00,,,0.06,WUHU216HW,2013-03-24 16:02:00,
2013-03-24 11:03:00,30.8,28.5,29.84,WNW,293,13.6,13.6,91,0.00,,,0.06,WUHU216HW,2013-03-24 16:03:00,
2013-03-24 11:04:00,30.8,28.5,29.84,WNW,293,13.6,13.6,91,0.00,,,0.06,WUHU216HW,2013-03-24 16:04:00,
2013-03-24 11:05:00,30.8,28.5,29.84,WNW,293,12.8,13.6,91,0.00,,,0.06,WUHU216HW,2013-03-24 16:05:00,
2013-03-24 11:08:00,30.6,28.4,29.85,NNW,338,8.5,13.6,91,0.00,,,0.06,WUHU216HW,2013-03-24 16:08:00,
2013-03-24 11:09:00,30.6,28.4,29.85,NNW,338,8.5,13.6,91,0.00,,,0.06,WUHU216HW,2013-03-24 16:09:00,
2013-03-24 11:12:00,30.8,28.5,29.85,NW,315,9.4,13.6,91,0.00,,,0.06,WUHU216HW,2013-03-24 16:12:00,
2013-03-24 11:14:00,30.8,28.5,29.85,NW,315,9.2,12.8,91,0.00,,,0.06,WUHU216HW,2013-03-24 16:14:00,
2013-03-24 11:16:00,30.8,28.5,29.85,West,270,9.8,11.9,91,0.00,,,0.06,WUHU216HW,2013-03-24 16:16:00,
2013-03-24 11:18:00,30.8,28.5,29.85,WNW,293,9.4,13.4,91,0.00,,,0.06,WUHU216HW,2013-03-24 16:18:00,
2013-03-24 11:19:00,30.8,28.5,29.85,WNW,293,9.4,13.4,91,0.00,,,0.06,WUHU216HW,2013-03-24 16:19:00,
2013-03-24 11:20:00,30.8,28.5,29.85,NW,315,12.1,14.1,91,0.00,,,0.06,WUHU216HW,2013-03-24 16:20:00,
2013-03-24 11:21:00,30.8,28.5,29.85,NW,315,13.2,14.1,91,0.00,,,0.06,WUHU216HW,2013-03-24 16:21:00,
2013-03-24 11:23:00,30.8,28.5,29.86,West,270,4.3,14.1,91,0.00,,,0.06,WUHU216HW,2013-03-24 16:23:00,
2013-03-24 11:24:00,30.8,28.5,29.86,West,270,4.3,14.1,91,0.00,,,0.06,WUHU216HW,2013-03-24 16:24:00,
2013-03-24 11:25:00,30.8,28.5,29.86,WNW,293,7.2,14.1,91,0.00,,,0.06,WUHU216HW,2013-03-24 16:25:00,
2013-03-24 11:27:00,31.0,28.7,29.86,NW,315,11.4,14.1,91,0.00,,,0.06,WUHU216HW,2013-03-24 16:27:00,
2013-03-24 11:29:00,30.6,28.4,29.86,WSW,248,7.6,13.2,91,0.00,,,0.06,WUHU216HW,2013-03-24 16:29:00,
2013-03-24 11:30:00,30.6,28.4,29.86,WNW,293,8.1,13.2,91,0.00,,,0.06,WUHU216HW,2013-03-24 16:30:00,
2013-03-24 11:31:00,30.6,28.4,29.86,NW,315,11.6,11.6,91,0.00,,,0.06,WUHU216HW,2013-03-24 16:31:00,
2013-03-24 11:33:00,30.6,28.4,29.86,NNW,338,11.0,11.6,91,0.00,,,0.06,WUHU216HW,2013-03-24 16:33:00,
2013-03-24 11:34:00,30.6,28.4,29.86,NNW,338,11.0,11.6,91,0.00,,,0.06,WUHU216HW,2013-03-24 16:34:00,
2013-03-24 11:35:00,30.6,28.4,29.86,NNW,338,7.4,11.6,91,0.00,,,0.06,WUHU216HW,2013-03-24 16:35:00,
2013-03-24 11:37:00,30.6,28.4,29.86,NW,315,13.4,13.4,91,0.00,,,0.06,WUHU216HW,2013-03-24 16:37:00,
2013-03-24 11:39:00,30.6,28.4,29.87,WNW,293,13.2,13.4,91,0.00,,,0.06,WUHU216HW,2013-03-24 16:39:00,
2013-03-24 11:40:00,30.4,28.2,29.87,West,270,11.9,14.8,91,0.00,,,0.06,WUHU216HW,2013-03-24 16:40:00,
2013-03-24 11:41:00,30.6,28.4,29.87,West,270,12.1,14.8,91,0.00,,,0.06,WUHU216HW,2013-03-24 16:41:00,
2013-03-24 11:44:00,30.6,28.4,29.87,NW,315,7.2,14.8,91,0.00,,,0.06,WUHU216HW,2013-03-24 16:44:00,
2013-03-24 11:45:00,30.4,28.2,29.87,West,270,9.6,14.8,91,0.00,,,0.06,WUHU216HW,2013-03-24 16:45:00,
2013-03-24 11:47:00,30.6,28.4,29.87,WNW,293,12.1,14.8,91,0.00,,,0.06,WUHU216HW,2013-03-24 16:47:00,
2013-03-24 11:49:00,30.6,28.4,29.87,NW,315,12.8,12.8,91,0.00,,,0.06,WUHU216HW,2013-03-24 16:49:00,
2013-03-24 11:50:00,30.6,28.4,29.87,WNW,293,10.5,12.8,91,0.00,,,0.06,WUHU216HW,2013-03-24 16:50:00,
2013-03-24 11:53:00,30.6,28.4,29.88,NW,315,12.8,12.8,91,0.00,,,0.06,WUHU216HW,2013-03-24 16:53:00,
2013-03-24 11:54:00,30.6,28.4,29.88,NW,315,9.2,12.8,91,0.00,,,0.06,WUHU216HW,2013-03-24 16:54:00,
2013-03-24 11:55:00,30.6,28.4,29.88,NW,315,9.2,12.8,91,0.00,,,0.06,WUHU216HW,2013-03-24 16:55:00,
2013-03-24 11:56:00,30.4,28.2,29.88,NW,315,7.6,12.8,91,0.00,,,0.06,WUHU216HW,2013-03-24 16:56:00,
2013-03-24 11:58:00,30.6,28.4,29.88,NNW,338,12.8,12.8,91,0.00,,,0.06,WUHU216HW,2013-03-24 16:58:00,
2013-03-24 12:00:00,30.6,28.4,29.88,NW,315,7.6,12.8,91,0.00,,,0.06,WUHU216HW,2013-03-24 17:00:00,
2013-03-24 12:05:00,30.6,28.4,29.88,NNW,338,9.8,15.0,91,0.00,,,0.06,WUHU216HW,2013-03-24 17:05:00,
2013-03-24 12:06:00,30.8,28.5,29.88,NW,315,6.0,15.0,91,0.00,,,0.06,WUHU216HW,2013-03-24 17:06:00,
2013-03-24 12:09:00,30.8,28.5,29.89,WNW,293,10.3,15.0,91,0.00,,,0.06,WUHU216HW,2013-03-24 17:09:00,
2013-03-24 12:10:00,30.6,28.4,29.88,West,270,11.2,15.0,91,0.00,,,0.06,WUHU216HW,2013-03-24 17:10:00,
2013-03-24 12:13:00,31.0,28.7,29.89,SW,225,11.9,15.0,91,0.00,,,0.06,WUHU216HW,2013-03-24 17:13:00,
2013-03-24 12:14:00,31.0,28.4,29.89,NW,315,11.2,13.2,90,0.00,,,0.06,WUHU216HW,2013-03-24 17:14:00,
2013-03-24 12:15:00,31.0,28.4,29.89,NW,315,11.2,13.2,90,0.00,,,0.06,WUHU216HW,2013-03-24 17:15:00,
2013-03-24 12:18:00,31.0,28.2,29.89,NW,315,7.4,14.3,89,0.00,,,0.06,WUHU216HW,2013-03-24 17:18:00,
2013-03-24 12:20:00,31.0,28.2,29.89,NW,315,11.6,14.3,89,0.00,,,0.06,WUHU216HW,2013-03-24 17:20:00,
2013-03-24 12:23:00,31.0,28.2,29.89,North,0,10.1,14.3,89,0.00,,,0.06,WUHU216HW,2013-03-24 17:23:00,
2013-03-24 12:24:00,31.0,28.4,29.89,WNW,293,10.1,14.3,90,0.00,,,0.06,WUHU216HW,2013-03-24 17:24:00,
2013-03-24 12:25:00,31.0,28.4,29.89,WNW,293,10.1,14.3,90,0.00,,,0.06,WUHU216HW,2013-03-24 17:25:00,
2013-03-24 12:26:00,31.0,28.4,29.89,WNW,293,12.8,12.8,90,0.00,,,0.06,WUHU216HW,2013-03-24 17:26:00,
2013-03-24 12:27:00,31.0,28.4,29.90,WSW,248,10.7,12.8,90,0.00,,,0.06,WUHU216HW,2013-03-24 17:27:00,
2013-03-24 12:30:00,31.0,28.2,29.90,NNW,338,5.6,12.8,89,0.00,,,0.06,WUHU216HW,2013-03-24 17:30:00,
2013-03-24 12:31:00,31.1,28.4,29.90,NNW,338,6.3,12.8,89,0.00,,,0.06,WUHU216HW,2013-03-24 17:31:00,
2013-03-24 12:33:00,31.0,28.2,29.90,West,270,8.9,13.2,89,0.00,,,0.06,WUHU216HW,2013-03-24 17:33:00,
2013-03-24 12:36:00,31.0,28.2,29.90,West,270,9.2,13.4,89,0.00,,,0.06,WUHU216HW,2013-03-24 17:36:00,
2013-03-24 12:38:00,31.1,28.4,29.90,WNW,293,12.1,13.4,89,0.00,,,0.06,WUHU216HW,2013-03-24 17:38:00,
2013-03-24 12:40:00,31.1,28.4,29.90,NNW,338,10.1,13.4,89,0.00,,,0.06,WUHU216HW,2013-03-24 17:40:00,
2013-03-24 12:41:00,31.1,28.4,29.90,NNW,338,10.1,13.4,89,0.00,,,0.06,WUHU216HW,2013-03-24 17:41:00,
2013-03-24 12:43:00,31.0,27.9,29.90,West,270,12.3,14.8,88,0.00,,,0.06,WUHU216HW,2013-03-24 17:43:00,
2013-03-24 12:44:00,31.1,28.1,29.90,WNW,293,13.4,14.8,88,0.00,,,0.06,WUHU216HW,2013-03-24 17:44:00,
2013-03-24 12:46:00,31.1,28.1,29.90,NW,315,9.8,14.8,88,0.00,,,0.06,WUHU216HW,2013-03-24 17:46:00,
2013-03-24 12:47:00,31.3,28.3,29.90,WNW,293,11.6,14.8,88,0.00,,,0.06,WUHU216HW,2013-03-24 17:47:00,
2013-03-24 12:48:00,31.1,28.1,29.90,WNW,293,16.1,16.1,88,0.00,,,0.06,WUHU216HW,2013-03-24 17:48:00,
2013-03-24 12:51:00,31.1,28.1,29.91,North,0,11.6,16.1,88,0.00,,,0.06,WUHU216HW,2013-03-24 17:51:00,
2013-03-24 12:52:00,31.0,27.9,29.91,NW,315,6.5,16.1,88,0.00,,,0.06,WUHU216HW,2013-03-24 17:52:00,
2013-03-24 12:54:00,31.1,28.1,29.91,WNW,293,12.1,16.1,88,0.00,,,0.06,WUHU216HW,2013-03-24 17:54:00,
2013-03-24 12:55:00,31.0,27.9,29.91,NW,315,12.1,16.1,88,0.00,,,0.06,WUHU216HW,2013-03-24 17:55:00,
2013-03-24 12:56:00,31.0,27.9,29.91,NW,315,12.1,16.1,88,0.00,,,0.06,WUHU216HW,2013-03-24 17:56:00,
2013-03-24 12:57:00,31.1,28.1,29.91,WNW,293,12.8,16.1,88,0.00,,,0.06,WUHU216HW,2013-03-24 17:57:00,
2013-03-24 13:00:00,31.1,28.1,29.91,NW,315,10.5,12.8,88,0.00,,,0.06,WUHU216HW,2013-03-24 18:00:00,
2013-03-24 13:01:00,31.1,27.7,29.91,NW,315,15.2,15.2,87,0.00,,,0.06,WUHU216HW,2013-03-24 18:01:00,
2013-03-24 13:04:00,31.1,28.1,29.91,NW,315,14.3,15.2,88,0.00,,,0.06,WUHU216HW,2013-03-24 18:04:00,
2013-03-24 13:06:00,31.1,28.1,29.91,WNW,293,12.5,15.2,88,0.00,,,0.06,WUHU216HW,2013-03-24 18:06:00,
2013-03-24 13:07:00,31.1,28.1,29.91,WNW,293,12.5,15.2,88,0.00,,,0.06,WUHU216HW,2013-03-24 18:07:00,
2013-03-24 13:09:00,31.3,28.3,29.92,NNE,23,6.5,15.2,88,0.00,,,0.06,WUHU216HW,2013-03-24 18:09:00,
2013-03-24 13:11:00,31.3,28.3,29.92,WNW,293,11.4,15.0,88,0.00,,,0.06,WUHU216HW,2013-03-24 18:11:00,
2013-03-24 13:12:00,31.3,28.3,29.92,WNW,293,11.4,15.0,88,0.00,,,0.06,WUHU216HW,2013-03-24 18:12:00,
2013-03-24 13:17:00,31.1,28.1,29.92,West,270,8.7,14.3,88,0.00,,,0.06,WUHU216HW,2013-03-24 18:17:00,
2013-03-24 13:19:00,31.0,27.9,29.92,NW,315,8.5,14.8,88,0.00,,,0.06,WUHU216HW,2013-03-24 18:19:00,
2013-03-24 13:20:00,31.0,27.9,29.92,SW,225,13.4,14.8,88,0.00,,,0.06,WUHU216HW,2013-03-24 18:20:00,
2013-03-24 13:21:00,31.0,27.9,29.92,NW,315,10.5,14.8,88,0.00,,,0.06,WUHU216HW,2013-03-24 18:21:00,
2013-03-24 13:22:00,31.0,27.9,29.92,NW,315,10.5,14.8,88,0.00,,,0.06,WUHU216HW,2013-03-24 18:22:00,
2013-03-24 13:23:00,31.0,28.2,29.92,WNW,293,7.6,14.8,89,0.00,,,0.06,WUHU216HW,2013-03-24 18:23:00,
2013-03-24 13:24:00,31.0,28.2,29.92,WSW,248,7.6,14.8,89,0.00,,,0.06,WUHU216HW,2013-03-24 18:24:00,
2013-03-24 13:27:00,31.0,28.2,29.92,WNW,293,9.6,14.8,89,0.00,,,0.06,WUHU216HW,2013-03-24 18:27:00,
2013-03-24 13:30:00,31.0,28.2,29.93,WNW,293,10.7,13.2,89,0.00,,,0.06,WUHU216HW,2013-03-24 18:30:00,
2013-03-24 13:31:00,31.0,27.9,29.93,West,270,12.8,13.2,88,0.00,,,0.06,WUHU216HW,2013-03-24 18:31:00,
2013-03-24 13:32:00,31.0,27.9,29.93,West,270,12.8,13.2,88,0.00,,,0.06,WUHU216HW,2013-03-24 18:32:00,
2013-03-24 13:33:00,31.0,27.9,29.93,WNW,293,13.2,13.2,88,0.00,,,0.06,WUHU216HW,2013-03-24 18:33:00,
2013-03-24 13:35:00,31.0,28.2,29.93,NW,315,8.9,13.2,89,0.00,,,0.06,WUHU216HW,2013-03-24 18:35:00,
2013-03-24 13:37:00,31.1,28.1,29.93,NNW,338,8.7,13.2,88,0.00,,,0.06,WUHU216HW,2013-03-24 18:37:00,
2013-03-24 13:38:00,31.3,28.3,29.93,NNW,338,15.0,15.0,88,0.00,,,0.06,WUHU216HW,2013-03-24 18:38:00,
2013-03-24 13:40:00,31.5,28.1,29.93,NW,315,12.1,15.0,87,0.00,,,0.06,WUHU216HW,2013-03-24 18:40:00,
2013-03-24 13:42:00,31.5,28.1,29.93,NW,315,12.1,15.0,87,0.00,,,0.06,WUHU216HW,2013-03-24 18:42:00,
2013-03-24 13:43:00,31.7,28.0,29.93,West,270,11.9,15.0,86,0.00,,,0.06,WUHU216HW,2013-03-24 18:43:00,
2013-03-24 13:45:00,31.5,27.8,29.94,NW,315,11.0,15.0,86,0.00,,,0.06,WUHU216HW,2013-03-24 18:45:00,
2013-03-24 13:46:00,31.5,27.8,29.93,NW,315,13.4,15.0,86,0.00,,,0.06,WUHU216HW,2013-03-24 18:46:00,
2013-03-24 13:47:00,31.5,27.8,29.93,NW,315,13.4,15.0,86,0.00,,,0.06,WUHU216HW,2013-03-24 18:47:00,
2013-03-24 13:49:00,31.3,27.9,29.94,NNW,338,14.3,14.3,87,0.00,,,0.06,WUHU216HW,2013-03-24 18:49:00,
2013-03-24 13:50:00,31.3,27.9,29.94,WNW,293,12.5,14.3,87,0.00,,,0.06,WUHU216HW,2013-03-24 18:50:00,
2013-03-24 13:52:00,31.1,28.1,29.94,NW,315,7.4,14.3,88,0.00,,,0.06,WUHU216HW,2013-03-24 18:52:00,
2013-03-24 13:55:00,31.0,28.2,29.94,North,0,5.8,14.3,89,0.00,,,0.06,WUHU216HW,2013-03-24 18:55:00,
2013-03-24 13:58:00,31.0,28.2,29.94,NE,45,5.1,14.3,89,0.00,,,0.06,WUHU216HW,2013-03-24 18:58:00,
2013-03-24 14:00:00,31.0,28.2,29.94,WNW,293,9.4,9.4,89,0.00,,,0.06,WUHU216HW,2013-03-24 19:00:00,
2013-03-24 14:02:00,31.0,27.9,29.93,West,270,19.2,19.2,88,0.00,,,0.06,WUHU216HW,2013-03-24 19:02:00,
2013-03-24 14:03:00,31.0,27.9,29.93,West,270,19.2,19.2,88,0.00,,,0.06,WUHU216HW,2013-03-24 19:03:00,
2013-03-24 14:05:00,31.1,27.5,29.94,NNW,338,11.9,19.2,86,0.00,,,0.06,WUHU216HW,2013-03-24 19:05:00,
2013-03-24 14:06:00,31.1,27.5,29.93,WSW,248,13.6,19.2,86,0.00,,,0.06,WUHU216HW,2013-03-24 19:06:00,
2013-03-24 14:08:00,31.3,27.6,29.93,North,0,9.4,19.2,86,0.00,,,0.06,WUHU216HW,2013-03-24 19:08:00,
2013-03-24 14:09:00,31.3,27.6,29.94,WNW,293,6.9,19.2,86,0.00,,,0.06,WUHU216HW,2013-03-24 19:09:00,
2013-03-24 14:10:00,31.3,27.6,29.93,NW,315,12.3,19.2,86,0.00,,,0.06,WUHU216HW,2013-03-24 19:10:00,
2013-03-24 14:12:00,31.3,27.4,29.94,North,0,10.3,13.6,85,0.00,,,0.06,WUHU216HW,2013-03-24 19:12:00,
2013-03-24 14:13:00,31.5,27.5,29.94,West,270,8.9,13.6,85,0.00,,,0.06,WUHU216HW,2013-03-24 19:13:00,
2013-03-24 14:14:00,31.5,27.5,29.93,West,270,6.9,13.6,85,0.00,,,0.06,WUHU216HW,2013-03-24 19:14:00,
2013-03-24 14:16:00,31.7,27.7,29.93,North,0,16.8,16.8,85,0.00,,,0.06,WUHU216HW,2013-03-24 19:16:00,
2013-03-24 14:17:00,31.7,27.7,29.94,WNW,293,9.4,16.8,85,0.00,,,0.06,WUHU216HW,2013-03-24 19:17:00,
2013-03-24 14:18:00,31.7,27.7,29.94,WNW,293,9.4,16.8,85,0.00,,,0.06,WUHU216HW,2013-03-24 19:18:00,
2013-03-24 14:22:00,31.5,27.3,29.93,WNW,293,7.2,16.8,84,0.00,,,0.06,WUHU216HW,2013-03-24 19:22:00,
2013-03-24 14:23:00,31.5,27.3,29.93,NW,315,12.8,16.8,84,0.00,,,0.06,WUHU216HW,2013-03-24 19:23:00,
2013-03-24 14:24:00,31.5,27.3,29.93,NW,315,12.8,16.8,84,0.00,,,0.06,WUHU216HW,2013-03-24 19:24:00,
2013-03-24 14:25:00,31.5,27.5,29.93,NNW,338,9.6,16.8,85,0.00,,,0.06,WUHU216HW,2013-03-24 19:25:00,
2013-03-24 14:27:00,31.3,27.4,29.93,West,270,6.9,13.4,85,0.00,,,0.06,WUHU216HW,2013-03-24 19:27:00,
2013-03-24 14:29:00,31.3,27.4,29.93,WNW,293,12.8,13.4,85,0.00,,,0.06,WUHU216HW,2013-03-24 19:29:00,
2013-03-24 14:31:00,31.3,27.6,29.93,NW,315,9.8,12.8,86,0.00,,,0.06,WUHU216HW,2013-03-24 19:31:00,
2013-03-24 14:33:00,31.3,27.4,29.93,NW,315,10.1,12.8,85,0.00,,,0.06,WUHU216HW,2013-03-24 19:33:00,
2013-03-24 14:34:00,31.3,27.4,29.93,NW,315,10.1,12.8,85,0.00,,,0.06,WUHU216HW,2013-03-24 19:34:00,
2013-03-24 14:36:00,31.3,26.8,29.93,WNW,293,12.5,18.8,83,0.00,,,0.06,WUHU216HW,2013-03-24 19:36:00,
2013-03-24 14:38:00,31.3,27.1,29.94,WNW,293,5.4,18.8,84,0.00,,,0.06,WUHU216HW,2013-03-24 19:38:00,
2013-03-24 14:39:00,31.3,27.1,29.94,WNW,293,5.4,18.8,84,0.00,,,0.06,WUHU216HW,2013-03-24 19:39:00,
2013-03-24 14:40:00,31.3,27.4,29.94,NNW,338,8.5,18.8,85,0.00,,,0.06,WUHU216HW,2013-03-24 19:40:00,
2013-03-24 14:42:00,31.1,27.2,29.94,West,270,13.2,18.8,85,0.00,,,0.06,WUHU216HW,2013-03-24 19:42:00,
2013-03-24 14:43:00,31.0,27.0,29.94,NW,315,12.8,18.8,85,0.00,,,0.06,WUHU216HW,2013-03-24 19:43:00,
2013-03-24 14:44:00,31.0,27.0,29.94,NW,315,12.8,18.8,85,0.00,,,0.06,WUHU216HW,2013-03-24 19:44:00,
2013-03-24 14:45:00,30.8,26.8,29.94,NW,315,21.5,21.5,85,0.00,,,0.06,WUHU216HW,2013-03-24 19:45:00,
2013-03-24 14:47:00,30.8,26.8,29.94,North,0,7.2,21.5,85,0.00,,,0.06,WUHU216HW,2013-03-24 19:47:00,
2013-03-24 14:49:00,30.8,26.8,29.94,West,270,14.3,21.5,85,0.00,,,0.06,WUHU216HW,2013-03-24 19:49:00,
2013-03-24 14:50:00,30.6,26.6,29.94,NW,315,13.6,21.5,85,0.00,,,0.06,WUHU216HW,2013-03-24 19:50:00,
2013-03-24 14:51:00,30.6,26.6,29.94,West,270,12.8,21.5,85,0.00,,,0.06,WUHU216HW,2013-03-24 19:51:00,
2013-03-24 14:53:00,30.6,26.6,29.94,WNW,293,10.1,21.5,85,0.00,,,0.06,WUHU216HW,2013-03-24 19:53:00,
2013-03-24 14:54:00,30.6,26.6,29.94,WNW,293,10.1,21.5,85,0.00,,,0.06,WUHU216HW,2013-03-24 19:54:00,
2013-03-24 14:55:00,30.8,26.8,29.94,West,270,10.5,15.0,85,0.00,,,0.06,WUHU216HW,2013-03-24 19:55:00,
2013-03-24 14:57:00,30.8,26.8,29.94,West,270,14.8,15.0,85,0.00,,,0.06,WUHU216HW,2013-03-24 19:57:00,
2013-03-24 14:58:00,30.8,26.6,29.94,NW,315,9.4,15.0,84,0.00,,,0.06,WUHU216HW,2013-03-24 19:58:00,
2013-03-24 15:00:00,30.8,26.6,29.94,NW,315,9.4,15.0,84,0.00,,,0.06,WUHU216HW,2013-03-24 20:00:00,
2013-03-24 15:03:00,31.0,26.7,29.94,West,270,3.4,15.0,84,0.00,,,0.06,WUHU216HW,2013-03-24 20:03:00,
2013-03-24 15:04:00,31.0,27.0,29.94,West,270,7.6,15.0,85,0.00,,,0.06,WUHU216HW,2013-03-24 20:04:00,
2013-03-24 15:05:00,31.0,27.0,29.94,West,270,7.6,15.0,85,0.00,,,0.06,WUHU216HW,2013-03-24 20:05:00,
2013-03-24 15:06:00,31.0,27.0,29.95,WNW,293,9.2,15.0,85,0.00,,,0.06,WUHU216HW,2013-03-24 20:06:00,
2013-03-24 15:08:00,31.0,26.7,29.95,WNW,293,10.5,15.0,84,0.00,,,0.06,WUHU216HW,2013-03-24 20:08:00,
2013-03-24 15:09:00,31.1,26.9,29.95,NW,315,9.2,15.0,84,0.00,,,0.06,WUHU216HW,2013-03-24 20:09:00,
2013-03-24 15:10:00,31.1,26.9,29.95,NW,315,9.2,15.0,84,0.00,,,0.06,WUHU216HW,2013-03-24 20:10:00,
2013-03-24 15:12:00,31.1,26.9,29.95,NW,315,7.2,15.0,84,0.00,,,0.06,WUHU216HW,2013-03-24 20:12:00,
2013-03-24 15:14:00,31.1,26.9,29.95,West,270,9.8,15.0,84,0.00,,,0.06,WUHU216HW,2013-03-24 20:14:00,
2013-03-24 15:15:00,31.1,26.7,29.94,NW,315,15.0,15.0,83,0.00,,,0.06,WUHU216HW,2013-03-24 20:15:00,
2013-03-24 15:16:00,31.1,26.9,29.95,NW,315,16.1,16.1,84,0.00,,,0.06,WUHU216HW,2013-03-24 20:16:00,
2013-03-24 15:18:00,31.1,26.7,29.95,WSW,248,9.4,16.1,83,0.00,,,0.06,WUHU216HW,2013-03-24 20:18:00,
2013-03-24 15:19:00,31.1,26.7,29.95,WNW,293,10.3,16.1,83,0.00,,,0.06,WUHU216HW,2013-03-24 20:19:00,
2013-03-24 15:20:00,31.1,26.7,29.95,WNW,293,10.3,16.1,83,0.00,,,0.06,WUHU216HW,2013-03-24 20:20:00,
2013-03-24 15:23:00,31.0,26.5,29.95,West,270,14.1,20.1,83,0.00,,,0.06,WUHU216HW,2013-03-24 20:23:00,
2013-03-24 15:24:00,31.0,26.5,29.95,WNW,293,7.2,20.1,83,0.00,,,0.06,WUHU216HW,2013-03-24 20:24:00,
2013-03-24 15:25:00,31.0,26.5,29.95,WNW,293,7.2,20.1,83,0.00,,,0.06,WUHU216HW,2013-03-24 20:25:00,
2013-03-24 15:26:00,31.0,26.5,29.95,West,270,11.6,20.1,83,0.00,,,0.06,WUHU216HW,2013-03-24 20:26:00,
2013-03-24 15:29:00,31.0,26.5,29.95,WNW,293,15.0,20.1,83,0.00,,,0.06,WUHU216HW,2013-03-24 20:29:00,
2013-03-24 15:30:00,31.0,26.5,29.95,WNW,293,15.0,20.1,83,0.00,,,0.06,WUHU216HW,2013-03-24 20:30:00,
2013-03-24 15:31:00,31.0,26.5,29.95,NW,315,11.0,20.1,83,0.00,,,0.06,WUHU216HW,2013-03-24 20:31:00,
2013-03-24 15:32:00,31.0,26.5,29.95,West,270,10.3,15.0,83,0.00,,,0.06,WUHU216HW,2013-03-24 20:32:00,
2013-03-24 15:34:00,31.1,26.7,29.95,WNW,293,17.7,17.7,83,0.00,,,0.06,WUHU216HW,2013-03-24 20:34:00,
2013-03-24 15:36:00,31.1,26.7,29.95,WNW,293,17.7,17.7,83,0.00,,,0.06,WUHU216HW,2013-03-24 20:36:00,
2013-03-24 15:38:00,31.3,26.2,29.95,NW,315,13.0,17.7,81,0.00,,,0.06,WUHU216HW,2013-03-24 20:38:00,
2013-03-24 15:41:00,31.3,26.2,29.95,NW,315,9.2,17.7,81,0.00,,,0.06,WUHU216HW,2013-03-24 20:41:00,
2013-03-24 15:43:00,31.5,26.4,29.96,West,270,6.3,17.7,81,0.00,,,0.06,WUHU216HW,2013-03-24 20:43:00,
2013-03-24 15:44:00,31.5,26.1,29.95,WNW,293,6.7,14.8,80,0.00,,,0.06,WUHU216HW,2013-03-24 20:44:00,
2013-03-24 15:46:00,31.7,26.3,29.95,WNW,293,12.8,13.4,80,0.00,,,0.06,WUHU216HW,2013-03-24 20:46:00,
2013-03-24 15:49:00,31.5,25.7,29.96,NW,315,13.9,13.9,79,0.00,,,0.06,WUHU216HW,2013-03-24 20:49:00,
2013-03-24 15:50:00,31.5,25.7,29.95,NW,315,8.3,13.9,79,0.00,,,0.06,WUHU216HW,2013-03-24 20:50:00,
2013-03-24 15:51:00,31.5,25.7,29.95,NW,315,8.3,13.9,79,0.00,,,0.06,WUHU216HW,2013-03-24 20:51:00,
2013-03-24 15:53:00,31.3,26.2,29.96,WNW,293,8.3,13.9,81,0.00,,,0.06,WUHU216HW,2013-03-24 20:53:00,
2013-03-24 15:55:00,31.3,26.5,29.96,NW,315,13.2,13.9,82,0.00,,,0.06,WUHU216HW,2013-03-24 20:55:00,
2013-03-24 15:56:00,31.3,26.5,29.96,NW,315,13.2,13.9,82,0.00,,,0.06,WUHU216HW,2013-03-24 20:56:00,
2013-03-24 15:58:00,31.0,26.1,29.96,West,270,8.7,21.0,82,0.00,,,0.06,WUHU216HW,2013-03-24 20:58:00,
2013-03-24 16:00:00,31.0,26.1,29.96,WNW,293,11.9,21.0,82,0.00,,,0.06,WUHU216HW,2013-03-24 21:00:00,
2013-03-24 16:02:00,31.0,25.8,29.96,West,270,15.0,21.0,81,0.00,,,0.06,WUHU216HW,2013-03-24 21:02:00,
2013-03-24 16:03:00,31.0,25.8,29.96,WNW,293,5.4,21.0,81,0.00,,,0.06,WUHU216HW,2013-03-24 21:03:00,
2013-03-24 16:06:00,31.0,25.8,29.96,NNW,338,11.6,21.0,81,0.00,,,0.06,WUHU216HW,2013-03-24 21:06:00,
2013-03-24 16:07:00,31.0,25.8,29.96,NNW,338,11.6,21.0,81,0.00,,,0.06,WUHU216HW,2013-03-24 21:07:00,
2013-03-24 16:08:00,31.0,25.8,29.96,WNW,293,9.2,15.4,81,0.00,,,0.06,WUHU216HW,2013-03-24 21:08:00,
2013-03-24 16:09:00,31.0,25.8,29.96,NW,315,13.6,15.4,81,0.00,,,0.06,WUHU216HW,2013-03-24 21:09:00,
2013-03-24 16:11:00,31.1,26.3,29.97,NW,315,6.0,15.4,82,0.00,,,0.06,WUHU216HW,2013-03-24 21:11:00,
2013-03-24 16:12:00,31.1,26.3,29.97,NW,315,6.0,15.4,82,0.00,,,0.06,WUHU216HW,2013-03-24 21:12:00,
2013-03-24 16:13:00,31.0,26.1,29.96,North,0,8.5,15.0,82,0.00,,,0.06,WUHU216HW,2013-03-24 21:13:00,
2013-03-24 16:15:00,31.0,26.1,29.96,West,270,9.4,14.8,82,0.00,,,0.06,WUHU216HW,2013-03-24 21:15:00,
2013-03-24 16:17:00,31.0,26.1,29.96,West,270,9.4,14.8,82,0.00,,,0.06,WUHU216HW,2013-03-24 21:17:00,
2013-03-24 16:18:00,31.0,26.1,29.97,WNW,293,9.2,14.8,82,0.00,,,0.06,WUHU216HW,2013-03-24 21:18:00,
2013-03-24 16:20:00,31.1,26.3,29.96,WNW,293,14.1,14.8,82,0.00,,,0.06,WUHU216HW,2013-03-24 21:20:00,
2013-03-24 16:22:00,31.0,25.8,29.97,North,0,11.6,14.1,81,0.00,,,0.06,WUHU216HW,2013-03-24 21:22:00,
2013-03-24 16:23:00,31.0,25.8,29.97,WNW,293,17.2,17.2,81,0.00,,,0.06,WUHU216HW,2013-03-24 21:23:00,
2013-03-24 16:25:00,30.8,25.4,29.97,WNW,293,9.4,17.2,80,0.00,,,0.06,WUHU216HW,2013-03-24 21:25:00,
2013-03-24 16:26:00,31.0,25.6,29.97,WNW,293,7.6,17.2,80,0.00,,,0.06,WUHU216HW,2013-03-24 21:26:00,
2013-03-24 16:27:00,31.0,25.6,29.97,WNW,293,7.6,17.2,80,0.00,,,0.06,WUHU216HW,2013-03-24 21:27:00,
2013-03-24 16:28:00,31.0,25.8,29.97,NNW,338,7.4,17.2,81,0.00,,,0.06,WUHU216HW,2013-03-24 21:28:00,
2013-03-24 16:29:00,31.0,25.6,29.97,WNW,293,6.3,17.2,80,0.00,,,0.06,WUHU216HW,2013-03-24 21:29:00,
2013-03-24 16:30:00,31.0,25.6,29.97,NW,315,9.2,17.2,80,0.00,,,0.06,WUHU216HW,2013-03-24 21:30:00,
2013-03-24 16:32:00,30.8,25.4,29.97,West,270,13.0,17.2,80,0.00,,,0.06,WUHU216HW,2013-03-24 21:32:00,
2013-03-24 16:33:00,30.8,25.4,29.97,NW,315,12.5,13.4,80,0.00,,,0.06,WUHU216HW,2013-03-24 21:33:00,
2013-03-24 16:35:00,31.0,25.6,29.97,WSW,248,11.4,13.4,80,0.00,,,0.06,WUHU216HW,2013-03-24 21:35:00,
2013-03-24 16:37:00,30.8,25.4,29.97,NNW,338,8.5,13.4,80,0.00,,,0.06,WUHU216HW,2013-03-24 21:37:00,
2013-03-24 16:38:00,30.6,25.5,29.97,West,270,5.4,13.4,81,0.00,,,0.06,WUHU216HW,2013-03-24 21:38:00,
2013-03-24 16:39:00,30.6,25.5,29.97,NW,315,9.2,13.4,81,0.00,,,0.06,WUHU216HW,2013-03-24 21:39:00,
2013-03-24 16:41:00,30.6,25.2,29.97,West,270,16.1,16.1,80,0.00,,,0.06,WUHU216HW,2013-03-24 21:41:00,
2013-03-24 16:42:00,30.6,25.2,29.97,West,270,12.1,16.1,80,0.00,,,0.06,WUHU216HW,2013-03-24 21:42:00,
2013-03-24 16:43:00,30.6,25.2,29.97,West,270,12.1,16.1,80,0.00,,,0.06,WUHU216HW,2013-03-24 21:43:00,
2013-03-24 16:44:00,30.6,25.2,29.97,WNW,293,7.4,16.1,80,0.00,,,0.06,WUHU216HW,2013-03-24 21:44:00,
2013-03-24 16:45:00,30.6,25.2,29.97,West,270,7.6,16.1,80,0.00,,,0.06,WUHU216HW,2013-03-24 21:45:00,
2013-03-24 16:47:00,30.6,25.2,29.97,WNW,293,15.4,16.1,80,0.00,,,0.06,WUHU216HW,2013-03-24 21:47:00,
2013-03-24 16:48:00,30.6,25.2,29.97,WNW,293,15.4,16.1,80,0.00,,,0.06,WUHU216HW,2013-03-24 21:48:00,
2013-03-24 16:52:00,30.6,24.8,29.97,WNW,293,7.8,15.7,79,0.00,,,0.06,WUHU216HW,2013-03-24 21:52:00,
2013-03-24 16:53:00,30.6,24.8,29.97,WNW,293,7.8,15.7,79,0.00,,,0.06,WUHU216HW,2013-03-24 21:53:00,
2013-03-24 16:54:00,30.6,25.2,29.97,NW,315,8.5,15.7,80,0.00,,,0.06,WUHU216HW,2013-03-24 21:54:00,
2013-03-24 16:56:00,30.6,25.2,29.97,West,270,6.9,15.7,80,0.00,,,0.06,WUHU216HW,2013-03-24 21:56:00,
2013-03-24 16:58:00,30.6,25.2,29.97,West,270,6.9,15.7,80,0.00,,,0.06,WUHU216HW,2013-03-24 21:58:00,
2013-03-24 17:01:00,30.6,25.5,29.97,West,270,9.2,9.4,81,0.00,,,0.06,WUHU216HW,2013-03-24 22:01:00,
2013-03-24 17:03:00,30.6,25.5,29.97,West,270,9.2,9.2,81,0.00,,,0.06,WUHU216HW,2013-03-24 22:03:00,
2013-03-24 17:05:00,30.6,25.5,29.97,West,270,10.1,12.3,81,0.00,,,0.06,WUHU216HW,2013-03-24 22:05:00,
2013-03-24 17:08:00,30.4,25.6,29.97,NW,315,5.6,12.5,82,0.00,,,0.06,WUHU216HW,2013-03-24 22:08:00,
2013-03-24 17:10:00,30.2,25.4,29.98,WNW,293,13.2,13.2,82,0.00,,,0.06,WUHU216HW,2013-03-24 22:10:00,
2013-03-24 17:12:00,30.2,25.1,29.98,WSW,248,11.9,13.2,81,0.00,,,0.06,WUHU216HW,2013-03-24 22:12:00,
2013-03-24 17:13:00,30.2,25.1,29.98,WSW,248,11.9,13.2,81,0.00,,,0.06,WUHU216HW,2013-03-24 22:13:00,
2013-03-24 17:14:00,30.2,25.4,29.98,NW,315,9.8,13.2,82,0.00,,,0.06,WUHU216HW,2013-03-24 22:14:00,
2013-03-24 17:15:00,30.1,24.9,29.98,North,0,13.4,13.4,81,0.00,,,0.06,WUHU216HW,2013-03-24 22:15:00,
2013-03-24 17:18:00,30.1,25.2,29.98,WNW,293,8.7,13.4,82,0.00,,,0.06,WUHU216HW,2013-03-24 22:18:00,
2013-03-24 17:19:00,30.2,25.4,29.98,NNW,338,9.4,13.4,82,0.00,,,0.06,WUHU216HW,2013-03-24 22:19:00,
2013-03-24 17:22:00,30.2,25.4,29.98,WNW,293,10.3,13.4,82,0.00,,,0.06,WUHU216HW,2013-03-24 22:22:00,
2013-03-24 17:23:00,30.2,25.4,29.98,WNW,293,10.3,13.4,82,0.00,,,0.06,WUHU216HW,2013-03-24 22:23:00,
2013-03-24 17:25:00,30.2,25.1,29.98,WNW,293,9.2,11.0,81,0.00,,,0.06,WUHU216HW,2013-03-24 22:25:00,
2013-03-24 17:26:00,30.2,25.1,29.98,NNW,338,8.5,11.0,81,0.00,,,0.06,WUHU216HW,2013-03-24 22:26:00,
2013-03-24 17:27:00,30.1,24.9,29.98,WNW,293,7.6,11.0,81,0.00,,,0.06,WUHU216HW,2013-03-24 22:27:00,
2013-03-24 17:28:00,30.1,24.9,29.98,WNW,293,7.6,11.0,81,0.00,,,0.06,WUHU216HW,2013-03-24 22:28:00,
2013-03-24 17:30:00,30.1,24.9,29.98,WNW,293,10.5,14.3,81,0.00,,,0.06,WUHU216HW,2013-03-24 22:30:00,
2013-03-24 17:31:00,30.2,25.1,29.98,NNW,338,10.1,14.3,81,0.00,,,0.06,WUHU216HW,2013-03-24 22:31:00,
2013-03-24 17:33:00,30.2,25.1,29.98,WNW,293,10.3,14.3,81,0.00,,,0.06,WUHU216HW,2013-03-24 22:33:00,
2013-03-24 17:34:00,30.1,24.9,29.98,NNE,23,6.9,14.3,81,0.00,,,0.06,WUHU216HW,2013-03-24 22:34:00,
2013-03-24 17:37:00,30.1,24.9,29.98,NW,315,8.3,14.3,81,0.00,,,0.06,WUHU216HW,2013-03-24 22:37:00,
2013-03-24 17:38:00,30.1,24.9,29.98,NW,315,8.3,14.3,81,0.00,,,0.06,WUHU216HW,2013-03-24 22:38:00,
2013-03-24 17:39:00,30.1,24.7,29.98,WNW,293,10.1,12.5,80,0.00,,,0.06,WUHU216HW,2013-03-24 22:39:00,
2013-03-24 17:40:00,30.2,24.8,29.98,NW,315,15.7,15.7,80,0.00,,,0.06,WUHU216HW,2013-03-24 22:40:00,
2013-03-24 17:42:00,30.2,24.8,29.98,WNW,293,6.9,15.7,80,0.00,,,0.06,WUHU216HW,2013-03-24 22:42:00,
2013-03-24 17:43:00,30.2,24.8,29.98,WNW,293,6.9,15.7,80,0.00,,,0.06,WUHU216HW,2013-03-24 22:43:00,
2013-03-24 17:44:00,30.4,25.3,29.98,West,270,8.5,15.7,81,0.00,,,0.06,WUHU216HW,2013-03-24 22:44:00,
2013-03-24 17:46:00,30.4,25.0,29.98,WNW,293,7.6,15.7,80,0.00,,,0.06,WUHU216HW,2013-03-24 22:46:00,
2013-03-24 17:48:00,30.4,25.0,29.98,NW,315,11.9,15.7,80,0.00,,,0.06,WUHU216HW,2013-03-24 22:48:00,
2013-03-24 17:50:00,30.4,25.0,29.98,NW,315,4.7,11.9,80,0.00,,,0.06,WUHU216HW,2013-03-24 22:50:00,
2013-03-24 17:51:00,30.4,25.0,29.98,WNW,293,7.6,11.9,80,0.00,,,0.06,WUHU216HW,2013-03-24 22:51:00,
2013-03-24 17:53:00,30.4,25.0,29.98,NW,315,11.4,11.9,80,0.00,,,0.06,WUHU216HW,2013-03-24 22:53:00,
2013-03-24 17:54:00,30.4,25.0,29.98,NW,315,11.4,11.9,80,0.00,,,0.06,WUHU216HW,2013-03-24 22:54:00,
2013-03-24 17:57:00,30.4,24.7,29.98,WNW,293,5.6,11.9,79,0.00,,,0.06,WUHU216HW,2013-03-24 22:57:00,
2013-03-24 17:58:00,30.4,25.0,29.98,WNW,293,5.6,11.4,80,0.00,,,0.06,WUHU216HW,2013-03-24 22:58:00,
2013-03-24 17:59:00,30.4,25.0,29.98,WNW,293,5.6,11.9,80,0.00,,,0.06,WUHU216HW,2013-03-24 22:59:00,
2013-03-24 18:01:00,30.4,25.0,29.98,WNW,293,4.0,11.4,80,0.00,,,0.06,WUHU216HW,2013-03-24 23:01:00,
2013-03-24 18:03:00,30.4,25.0,29.98,NW,315,8.5,11.4,80,0.00,,,0.06,WUHU216HW,2013-03-24 23:03:00,
2013-03-24 18:04:00,30.4,25.0,29.98,NW,315,8.5,11.4,80,0.00,,,0.06,WUHU216HW,2013-03-24 23:04:00,
2013-03-24 18:06:00,30.4,25.0,29.98,NW,315,10.5,12.1,80,0.00,,,0.06,WUHU216HW,2013-03-24 23:06:00,
2013-03-24 18:08:00,30.4,25.0,29.99,NW,315,6.5,12.1,80,0.00,,,0.06,WUHU216HW,2013-03-24 23:08:00,
2013-03-24 18:09:00,30.4,25.0,29.99,NW,315,6.5,12.1,80,0.00,,,0.06,WUHU216HW,2013-03-24 23:09:00,
2013-03-24 18:11:00,30.2,24.8,29.99,West,270,6.3,12.1,80,0.00,,,0.06,WUHU216HW,2013-03-24 23:11:00,
2013-03-24 18:13:00,30.2,24.8,29.99,NW,315,5.8,12.1,80,0.00,,,0.06,WUHU216HW,2013-03-24 23:13:00,
2013-03-24 18:14:00,30.2,24.8,29.99,NW,315,5.8,12.1,80,0.00,,,0.06,WUHU216HW,2013-03-24 23:14:00,
2013-03-24 18:15:00,30.4,25.3,29.99,NW,315,6.0,11.4,81,0.00,,,0.06,WUHU216HW,2013-03-24 23:15:00,
2013-03-24 18:17:00,30.2,25.1,29.99,NW,315,6.7,11.4,81,0.00,,,0.06,WUHU216HW,2013-03-24 23:17:00,
2013-03-24 18:19:00,30.2,25.1,29.99,WSW,248,12.3,12.3,81,0.00,,,0.06,WUHU216HW,2013-03-24 23:19:00,
2013-03-24 18:21:00,30.2,25.1,29.99,WNW,293,8.5,12.3,81,0.00,,,0.06,WUHU216HW,2013-03-24 23:21:00,
2013-03-24 18:22:00,30.1,24.9,29.99,NW,315,6.5,12.3,81,0.00,,,0.06,WUHU216HW,2013-03-24 23:22:00,
2013-03-24 18:23:00,30.2,25.1,29.99,WNW,293,10.5,12.3,81,0.00,,,0.06,WUHU216HW,2013-03-24 23:23:00,
2013-03-24 18:24:00,30.2,25.1,29.99,WNW,293,10.5,12.3,81,0.00,,,0.06,WUHU216HW,2013-03-24 23:24:00,
2013-03-24 18:26:00,30.2,25.1,29.99,NNW,338,6.3,12.3,81,0.00,,,0.06,WUHU216HW,2013-03-24 23:26:00,
2013-03-24 18:27:00,30.2,25.1,30.00,West,270,13.6,13.6,81,0.00,,,0.06,WUHU216HW,2013-03-24 23:27:00,
2013-03-24 18:28:00,30.1,24.7,29.99,West,270,13.4,13.6,80,0.00,,,0.06,WUHU216HW,2013-03-24 23:28:00,
2013-03-24 18:29:00,30.1,24.7,29.99,West,270,13.4,13.6,80,0.00,,,0.06,WUHU216HW,2013-03-24 23:29:00,
2013-03-24 18:30:00,30.1,24.7,30.00,West,270,6.3,13.6,80,0.00,,,0.06,WUHU216HW,2013-03-24 23:30:00,
2013-03-24 18:34:00,30.1,24.3,30.00,NW,315,11.9,13.6,79,0.00,,,0.06,WUHU216HW,2013-03-24 23:34:00,
2013-03-24 18:36:00,30.1,24.3,30.00,NW,315,10.7,13.6,79,0.00,,,0.06,WUHU216HW,2013-03-24 23:36:00,
2013-03-24 18:40:00,30.1,24.0,30.01,NW,315,9.8,11.9,78,0.00,,,0.06,WUHU216HW,2013-03-24 23:40:00,
2013-03-24 18:41:00,29.9,24.1,30.01,NW,315,8.9,11.9,79,0.00,,,0.06,WUHU216HW,2013-03-24 23:41:00,
2013-03-24 18:43:00,30.1,24.3,30.01,North,0,6.7,10.7,79,0.00,,,0.06,WUHU216HW,2013-03-24 23:43:00,
2013-03-24 18:45:00,30.1,24.3,30.01,North,0,6.7,10.7,79,0.00,,,0.06,WUHU216HW,2013-03-24 23:45:00,
2013-03-24 18:47:00,30.1,24.3,30.01,NNW,338,9.2,9.8,79,0.00,,,0.06,WUHU216HW,2013-03-24 23:47:00,
2013-03-24 18:50:00,29.9,24.1,30.01,WNW,293,5.6,9.2,79,0.00,,,0.06,WUHU216HW,2013-03-24 23:50:00,
2013-03-24 18:52:00,29.9,24.1,30.01,NNW,338,5.8,9.8,79,0.00,,,0.06,WUHU216HW,2013-03-24 23:52:00,
2013-03-24 18:53:00,29.9,24.1,30.01,WNW,293,7.2,9.8,79,0.00,,,0.06,WUHU216HW,2013-03-24 23:53:00,
2013-03-24 18:55:00,29.9,24.1,30.01,NW,315,10.5,10.5,79,0.00,,,0.06,WUHU216HW,2013-03-24 23:55:00,
2013-03-24 18:56:00,29.9,24.1,30.02,WNW,293,11.0,11.0,79,0.00,,,0.06,WUHU216HW,2013-03-24 23:56:00,
2013-03-24 18:57:00,29.9,24.1,30.02,WNW,293,12.1,12.1,79,0.00,,,0.06,WUHU216HW,2013-03-24 23:57:00,
2013-03-24 19:00:00,29.9,24.1,30.02,West,270,11.9,12.1,79,0.00,,,0.06,WUHU216HW,2013-03-25 00:00:00,
2013-03-24 19:02:00,29.9,24.1,30.02,WNW,293,8.5,12.1,79,0.00,,,0.06,WUHU216HW,2013-03-25 00:02:00,
2013-03-24 19:03:00,29.9,24.1,30.02,North,0,4.9,12.1,79,0.00,,,0.06,WUHU216HW,2013-03-25 00:03:00,
2013-03-24 19:05:00,29.9,24.1,30.02,North,0,8.9,12.1,79,0.00,,,0.06,WUHU216HW,2013-03-25 00:05:00,
2013-03-24 19:07:00,29.9,24.1,30.02,WNW,293,3.6,12.1,79,0.00,,,0.06,WUHU216HW,2013-03-25 00:07:00,
2013-03-24 19:08:00,29.9,24.1,30.02,WNW,293,6.0,11.9,79,0.00,,,0.06,WUHU216HW,2013-03-25 00:08:00,
2013-03-24 19:10:00,29.9,24.1,30.02,NW,315,7.8,11.9,79,0.00,,,0.06,WUHU216HW,2013-03-25 00:10:00,
2013-03-24 19:13:00,29.9,24.1,30.02,SW,225,6.3,8.9,79,0.00,,,0.06,WUHU216HW,2013-03-25 00:13:00,
2013-03-24 19:14:00,29.9,24.1,30.02,West,270,3.6,8.3,79,0.00,,,0.06,WUHU216HW,2013-03-25 00:14:00,
2013-03-24 19:15:00,29.9,24.1,30.02,West,270,3.6,8.3,79,0.00,,,0.06,WUHU216HW,2013-03-25 00:15:00,
2013-03-24 19:16:00,29.9,24.1,30.02,NW,315,6.7,8.3,79,0.00,,,0.06,WUHU216HW,2013-03-25 00:16:00,
2013-03-24 19:18:00,29.9,24.1,30.03,NW,315,4.9,8.3,79,0.00,,,0.06,WUHU216HW,2013-03-25 00:18:00,
2013-03-24 19:20:00,29.9,24.1,30.03,WNW,293,6.0,6.7,79,0.00,,,0.06,WUHU216HW,2013-03-25 00:20:00,
2013-03-24 19:21:00,29.9,24.1,30.03,WNW,293,6.0,6.7,79,0.00,,,0.06,WUHU216HW,2013-03-25 00:21:00,
2013-03-24 19:24:00,29.9,24.5,30.03,WNW,293,4.7,8.5,80,0.00,,,0.06,WUHU216HW,2013-03-25 00:24:00,
2013-03-24 19:26:00,29.9,24.5,30.03,WNW,293,4.7,8.5,80,0.00,,,0.06,WUHU216HW,2013-03-25 00:26:00,
2013-03-24 19:28:00,29.9,24.1,30.03,NW,315,8.1,10.1,79,0.00,,,0.06,WUHU216HW,2013-03-25 00:28:00,
2013-03-24 19:29:00,29.9,24.1,30.03,NW,315,9.6,10.1,79,0.00,,,0.06,WUHU216HW,2013-03-25 00:29:00,
2013-03-24 19:30:00,29.9,24.1,30.04,West,270,10.3,10.3,79,0.00,,,0.06,WUHU216HW,2013-03-25 00:30:00,
2013-03-24 19:31:00,29.9,24.1,30.03,NW,315,9.6,10.1,79,0.00,,,0.06,WUHU216HW,2013-03-25 00:31:00,
2013-03-24 19:32:00,29.9,23.9,30.04,WNW,293,6.5,10.3,78,0.00,,,0.06,WUHU216HW,2013-03-25 00:32:00,
2013-03-24 19:33:00,29.9,23.9,30.04,WNW,293,11.2,11.2,78,0.00,,,0.06,WUHU216HW,2013-03-25 00:33:00,
2013-03-24 19:36:00,29.9,23.9,30.04,West,270,6.5,11.2,78,0.00,,,0.06,WUHU216HW,2013-03-25 00:36:00,
2013-03-24 19:38:00,29.9,23.5,30.04,West,270,8.5,11.2,77,0.00,,,0.06,WUHU216HW,2013-03-25 00:38:00,
2013-03-24 19:40:00,29.9,23.5,30.04,WNW,293,8.1,11.2,77,0.00,,,0.06,WUHU216HW,2013-03-25 00:40:00,
2013-03-24 19:41:00,29.9,23.5,30.04,WNW,293,9.6,11.2,77,0.00,,,0.06,WUHU216HW,2013-03-25 00:41:00,
2013-03-24 19:45:00,29.9,23.5,30.05,WNW,293,8.7,10.3,77,0.00,,,0.06,WUHU216HW,2013-03-25 00:45:00,
2013-03-24 19:46:00,29.9,23.5,30.05,West,270,4.5,10.3,77,0.00,,,0.06,WUHU216HW,2013-03-25 00:46:00,
2013-03-24 19:48:00,29.9,23.5,30.05,WNW,293,4.9,10.3,77,0.00,,,0.06,WUHU216HW,2013-03-25 00:48:00,
2013-03-24 19:49:00,29.9,23.5,30.05,WSW,248,3.8,10.3,77,0.00,,,0.06,WUHU216HW,2013-03-25 00:49:00,
2013-03-24 19:51:00,29.7,23.7,30.05,West,270,4.0,10.1,78,0.00,,,0.06,WUHU216HW,2013-03-25 00:51:00,
2013-03-24 19:52:00,29.7,23.7,30.05,West,270,4.0,10.1,78,0.00,,,0.06,WUHU216HW,2013-03-25 00:52:00,
2013-03-24 19:54:00,29.7,23.3,30.05,WNW,293,7.8,9.8,77,0.00,,,0.06,WUHU216HW,2013-03-25 00:54:00,
2013-03-24 19:57:00,29.7,23.7,30.05,West,270,5.1,9.8,78,0.00,,,0.06,WUHU216HW,2013-03-25 00:57:00,
2013-03-24 19:59:00,29.7,23.7,30.06,NW,315,4.0,9.8,78,0.00,,,0.06,WUHU216HW,2013-03-25 00:59:00,
2013-03-24 20:00:00,29.7,23.7,30.06,NW,315,6.3,9.8,78,0.00,,,0.06,WUHU216HW,2013-03-25 01:00:00,
2013-03-24 20:02:00,29.7,23.7,30.06,WNW,293,6.9,9.8,78,0.00,,,0.06,WUHU216HW,2013-03-25 01:02:00,
2013-03-24 20:04:00,29.7,23.7,30.06,WNW,293,5.4,9.6,78,0.00,,,0.06,WUHU216HW,2013-03-25 01:04:00,
2013-03-24 20:06:00,29.7,23.7,30.06,West,270,6.3,9.6,78,0.00,,,0.06,WUHU216HW,2013-03-25 01:06:00,
2013-03-24 20:07:00,29.7,23.7,30.06,West,270,6.3,9.6,78,0.00,,,0.06,WUHU216HW,2013-03-25 01:07:00,
2013-03-24 20:08:00,29.7,23.7,30.06,West,270,7.2,9.6,78,0.00,,,0.06,WUHU216HW,2013-03-25 01:08:00,
2013-03-24 20:09:00,29.7,23.7,30.06,West,270,8.5,9.6,78,0.00,,,0.06,WUHU216HW,2013-03-25 01:09:00,
2013-03-24 20:10:00,29.7,23.7,30.06,West,270,3.8,9.6,78,0.00,,,0.06,WUHU216HW,2013-03-25 01:10:00,
2013-03-24 20:12:00,29.7,23.3,30.06,West,270,13.2,13.2,77,0.00,,,0.06,WUHU216HW,2013-03-25 01:12:00,
2013-03-24 20:14:00,29.7,23.3,30.06,NW,315,5.6,13.2,77,0.00,,,0.06,WUHU216HW,2013-03-25 01:14:00,
2013-03-24 20:16:00,29.7,23.3,30.06,WNW,293,6.9,13.2,77,0.00,,,0.06,WUHU216HW,2013-03-25 01:16:00,
2013-03-24 20:17:00,29.7,23.3,30.06,WSW,248,6.9,13.2,77,0.00,,,0.06,WUHU216HW,2013-03-25 01:17:00,
2013-03-24 20:18:00,29.7,23.3,30.06,SW,225,8.9,13.2,77,0.00,,,0.06,WUHU216HW,2013-03-25 01:18:00,
2013-03-24 20:21:00,29.7,23.3,30.07,WNW,293,9.8,13.2,77,0.00,,,0.06,WUHU216HW,2013-03-25 01:21:00,
2013-03-24 20:22:00,29.5,23.1,30.07,West,270,6.5,12.5,77,0.00,,,0.06,WUHU216HW,2013-03-25 01:22:00,
2013-03-24 20:24:00,29.5,23.1,30.07,NNW,338,11.2,12.5,77,0.00,,,0.06,WUHU216HW,2013-03-25 01:24:00,
2013-03-24 20:26:00,29.5,22.9,30.07,WNW,293,7.2,11.2,76,0.00,,,0.06,WUHU216HW,2013-03-25 01:26:00,
2013-03-24 20:27:00,29.5,23.1,30.07,West,270,6.7,11.2,77,0.00,,,0.06,WUHU216HW,2013-03-25 01:27:00,
2013-03-24 20:28:00,29.5,22.9,30.07,WNW,293,7.2,11.2,76,0.00,,,0.06,WUHU216HW,2013-03-25 01:28:00,
2013-03-24 20:30:00,29.5,23.1,30.07,NW,315,8.5,11.9,77,0.00,,,0.06,WUHU216HW,2013-03-25 01:30:00,
2013-03-24 20:32:00,29.5,22.9,30.07,WNW,293,8.5,11.9,76,0.00,,,0.06,WUHU216HW,2013-03-25 01:32:00,
2013-03-24 20:33:00,29.5,22.9,30.07,WNW,293,8.5,11.9,76,0.00,,,0.06,WUHU216HW,2013-03-25 01:33:00,
2013-03-24 20:35:00,29.5,22.9,30.07,NW,315,6.9,11.9,76,0.00,,,0.06,WUHU216HW,2013-03-25 01:35:00,
2013-03-24 20:38:00,29.3,22.4,30.07,NW,315,9.8,11.9,75,0.00,,,0.06,WUHU216HW,2013-03-25 01:38:00,
2013-03-24 20:39:00,29.3,22.7,30.07,WNW,293,4.7,11.6,76,0.00,,,0.06,WUHU216HW,2013-03-25 01:39:00,
2013-03-24 20:40:00,29.3,22.7,30.07,West,270,5.6,11.6,76,0.00,,,0.06,WUHU216HW,2013-03-25 01:40:00,
2013-03-24 20:42:00,29.2,22.5,30.08,WNW,293,11.2,11.6,76,0.00,,,0.06,WUHU216HW,2013-03-25 01:42:00,
2013-03-24 20:43:00,29.2,22.5,30.08,WNW,293,11.2,11.6,76,0.00,,,0.06,WUHU216HW,2013-03-25 01:43:00,
2013-03-24 20:46:00,29.2,22.5,30.07,WSW,248,9.2,11.2,76,0.00,,,0.06,WUHU216HW,2013-03-25 01:46:00,
2013-03-24 20:48:00,29.2,22.5,30.07,WSW,248,9.2,11.2,76,0.00,,,0.06,WUHU216HW,2013-03-25 01:48:00,
2013-03-24 20:49:00,29.0,22.3,30.07,NNW,338,9.2,13.6,76,0.00,,,0.06,WUHU216HW,2013-03-25 01:49:00,
2013-03-24 20:53:00,28.8,22.1,30.07,WNW,293,4.5,13.6,76,0.00,,,0.06,WUHU216HW,2013-03-25 01:53:00,
2013-03-24 20:56:00,28.8,21.9,30.07,West,270,4.0,13.6,75,0.00,,,0.06,WUHU216HW,2013-03-25 01:56:00,
2013-03-24 20:58:00,28.8,21.9,30.07,West,270,4.0,13.6,75,0.00,,,0.06,WUHU216HW,2013-03-25 01:58:00,
2013-03-24 21:02:00,28.4,21.5,30.07,WSW,248,6.5,10.5,75,0.00,,,0.06,WUHU216HW,2013-03-25 02:02:00,
2013-03-24 21:03:00,28.4,21.5,30.07,WSW,248,6.5,10.5,75,0.00,,,0.06,WUHU216HW,2013-03-25 02:03:00,
2013-03-24 21:05:00,28.4,21.5,30.07,WNW,293,4.7,10.3,75,0.00,,,0.06,WUHU216HW,2013-03-25 02:05:00,
2013-03-24 21:06:00,28.4,21.5,30.08,NW,315,7.4,10.3,75,0.00,,,0.06,WUHU216HW,2013-03-25 02:06:00,
2013-03-24 21:08:00,28.4,21.5,30.08,WNW,293,5.4,9.4,75,0.00,,,0.06,WUHU216HW,2013-03-25 02:08:00,
2013-03-24 21:09:00,28.4,21.5,30.08,NW,315,4.5,9.4,75,0.00,,,0.06,WUHU216HW,2013-03-25 02:09:00,
2013-03-24 21:10:00,28.4,21.5,30.08,West,270,5.1,9.4,75,0.00,,,0.06,WUHU216HW,2013-03-25 02:10:00,
2013-03-24 21:12:00,28.3,21.3,30.08,WNW,293,2.5,9.4,75,0.00,,,0.06,WUHU216HW,2013-03-25 02:12:00,
2013-03-24 21:13:00,28.3,21.3,30.08,WNW,293,2.5,9.4,75,0.00,,,0.06,WUHU216HW,2013-03-25 02:13:00,
2013-03-24 21:14:00,28.1,21.4,30.08,NW,315,7.2,8.5,76,0.00,,,0.06,WUHU216HW,2013-03-25 02:14:00,
2013-03-24 21:16:00,28.1,21.4,30.08,West,270,3.4,8.5,76,0.00,,,0.06,WUHU216HW,2013-03-25 02:16:00,
2013-03-24 21:18:00,28.1,21.4,30.08,West,270,5.6,7.2,76,0.00,,,0.06,WUHU216HW,2013-03-25 02:18:00,
2013-03-24 21:19:00,27.9,21.2,30.08,WNW,293,5.6,7.2,76,0.00,,,0.06,WUHU216HW,2013-03-25 02:19:00,
2013-03-24 21:21:00,27.9,21.2,30.08,NW,315,2.5,7.2,76,0.00,,,0.06,WUHU216HW,2013-03-25 02:21:00,
2013-03-24 21:23:00,27.9,21.2,30.08,WNW,293,3.6,7.2,76,0.00,,,0.06,WUHU216HW,2013-03-25 02:23:00,
2013-03-24 21:24:00,27.7,21.1,30.08,WNW,293,2.9,6.3,76,0.00,,,0.06,WUHU216HW,2013-03-25 02:24:00,
2013-03-24 21:28:00,27.9,21.2,30.08,West,270,2.2,8.5,76,0.00,,,0.06,WUHU216HW,2013-03-25 02:28:00,
2013-03-24 21:29:00,27.9,21.2,30.08,West,270,2.2,8.5,76,0.00,,,0.06,WUHU216HW,2013-03-25 02:29:00,
2013-03-24 21:31:00,27.7,21.1,30.08,West,270,7.6,8.5,76,0.00,,,0.06,WUHU216HW,2013-03-25 02:31:00,
2013-03-24 21:33:00,27.7,21.1,30.08,NW,315,5.1,8.5,76,0.00,,,0.06,WUHU216HW,2013-03-25 02:33:00,
2013-03-24 21:34:00,27.7,21.1,30.08,NW,315,5.1,8.5,76,0.00,,,0.06,WUHU216HW,2013-03-25 02:34:00,
2013-03-24 21:36:00,27.7,21.1,30.09,WNW,293,4.0,8.5,76,0.00,,,0.06,WUHU216HW,2013-03-25 02:36:00,
2013-03-24 21:38:00,27.7,21.1,30.09,NW,315,4.0,7.6,76,0.00,,,0.06,WUHU216HW,2013-03-25 02:38:00,
2013-03-24 21:39:00,27.7,21.1,30.09,NW,315,4.0,7.6,76,0.00,,,0.06,WUHU216HW,2013-03-25 02:39:00,
2013-03-24 21:40:00,27.7,21.1,30.09,NNW,338,2.0,7.6,76,0.00,,,0.06,WUHU216HW,2013-03-25 02:40:00,
2013-03-24 21:42:00,27.7,21.4,30.09,West,270,5.1,7.4,77,0.00,,,0.06,WUHU216HW,2013-03-25 02:42:00,
2013-03-24 21:43:00,27.5,21.3,30.09,WNW,293,3.4,7.2,77,0.00,,,0.06,WUHU216HW,2013-03-25 02:43:00,
2013-03-24 21:44:00,27.5,21.3,30.09,WNW,293,3.4,7.2,77,0.00,,,0.06,WUHU216HW,2013-03-25 02:44:00,
2013-03-24 21:46:00,27.5,21.3,30.09,WNW,293,8.9,8.9,77,0.00,,,0.06,WUHU216HW,2013-03-25 02:46:00,
2013-03-24 21:47:00,27.5,21.3,30.09,WNW,293,3.8,8.9,77,0.00,,,0.06,WUHU216HW,2013-03-25 02:47:00,
2013-03-24 21:48:00,27.5,21.3,30.09,WNW,293,3.6,8.9,77,0.00,,,0.06,WUHU216HW,2013-03-25 02:48:00,
2013-03-24 21:49:00,27.5,21.3,30.09,WNW,293,3.6,8.9,77,0.00,,,0.06,WUHU216HW,2013-03-25 02:49:00,
2013-03-24 21:50:00,27.5,21.3,30.09,WNW,293,4.7,8.9,77,0.00,,,0.06,WUHU216HW,2013-03-25 02:50:00,
2013-03-24 21:51:00,27.5,21.3,30.10,West,270,4.0,8.9,77,0.00,,,0.06,WUHU216HW,2013-03-25 02:51:00,
2013-03-24 21:54:00,27.4,21.1,30.09,SW,225,2.5,8.9,77,0.00,,,0.06,WUHU216HW,2013-03-25 02:54:00,
2013-03-24 21:55:00,27.4,21.1,30.09,West,270,3.6,8.9,77,0.00,,,0.06,WUHU216HW,2013-03-25 02:55:00,
2013-03-24 21:57:00,27.4,21.1,30.10,WNW,293,5.6,5.6,77,0.00,,,0.06,WUHU216HW,2013-03-25 02:57:00,
2013-03-24 21:58:00,27.4,21.1,30.10,WSW,248,2.9,5.6,77,0.00,,,0.06,WUHU216HW,2013-03-25 02:58:00,
2013-03-24 21:59:00,27.4,21.1,30.10,WSW,248,2.9,5.6,77,0.00,,,0.06,WUHU216HW,2013-03-25 02:59:00,
2013-03-24 22:01:00,27.4,21.1,30.10,West,270,4.0,6.9,77,0.00,,,0.06,WUHU216HW,2013-03-25 03:01:00,
2013-03-24 22:02:00,27.4,21.1,30.10,West,270,5.1,6.9,77,0.00,,,0.06,WUHU216HW,2013-03-25 03:02:00,
2013-03-24 22:04:00,27.4,21.1,30.10,West,270,5.6,6.9,77,0.00,,,0.06,WUHU216HW,2013-03-25 03:04:00,
2013-03-24 22:05:00,27.4,21.1,30.10,WNW,293,4.0,6.9,77,0.00,,,0.06,WUHU216HW,2013-03-25 03:05:00,
2013-03-24 22:07:00,27.2,21.2,30.10,West,270,2.7,6.9,78,0.00,,,0.06,WUHU216HW,2013-03-25 03:07:00,
2013-03-24 22:09:00,27.2,21.2,30.10,WNW,293,3.4,6.9,78,0.00,,,0.06,WUHU216HW,2013-03-25 03:09:00,
2013-03-24 22:10:00,27.2,21.2,30.10,WNW,293,4.3,6.9,78,0.00,,,0.06,WUHU216HW,2013-03-25 03:10:00,
2013-03-24 22:11:00,27.2,21.2,30.10,WNW,293,6.3,6.3,78,0.00,,,0.06,WUHU216HW,2013-03-25 03:11:00,
2013-03-24 22:12:00,27.2,21.2,30.10,WNW,293,6.0,7.2,78,0.00,,,0.06,WUHU216HW,2013-03-25 03:12:00,
2013-03-24 22:14:00,27.2,21.2,30.10,WSW,248,4.5,7.2,78,0.00,,,0.06,WUHU216HW,2013-03-25 03:14:00,
2013-03-24 22:15:00,27.4,21.3,30.10,WNW,293,3.4,7.8,78,0.00,,,0.06,WUHU216HW,2013-03-25 03:15:00,
2013-03-24 22:19:00,27.4,21.3,30.10,West,270,3.4,7.8,78,0.00,,,0.06,WUHU216HW,2013-03-25 03:19:00,
2013-03-24 22:20:00,27.4,21.3,30.10,WNW,293,5.8,7.8,78,0.00,,,0.06,WUHU216HW,2013-03-25 03:20:00,
2013-03-24 22:21:00,27.4,21.3,30.10,West,270,6.5,7.8,78,0.00,,,0.06,WUHU216HW,2013-03-25 03:21:00,
2013-03-24 22:23:00,27.4,21.3,30.10,West,270,4.7,7.8,78,0.00,,,0.06,WUHU216HW,2013-03-25 03:23:00,
2013-03-24 22:25:00,27.5,21.5,30.10,WNW,293,5.1,10.5,78,0.00,,,0.06,WUHU216HW,2013-03-25 03:25:00,
2013-03-24 22:27:00,27.7,21.7,30.10,NW,315,4.7,10.5,78,0.00,,,0.06,WUHU216HW,2013-03-25 03:27:00,
2013-03-24 22:29:00,27.7,21.4,30.10,WSW,248,5.6,10.5,77,0.00,,,0.06,WUHU216HW,2013-03-25 03:29:00,
2013-03-24 22:30:00,27.7,21.4,30.10,WSW,248,5.6,10.5,77,0.00,,,0.06,WUHU216HW,2013-03-25 03:30:00,
2013-03-24 22:32:00,27.7,21.4,30.10,WNW,293,4.7,10.5,77,0.00,,,0.06,WUHU216HW,2013-03-25 03:32:00,
2013-03-24 22:34:00,27.7,21.4,30.10,WNW,293,6.9,10.5,77,0.00,,,0.06,WUHU216HW,2013-03-25 03:34:00,
2013-03-24 22:35:00,27.7,21.4,30.10,West,270,5.6,9.6,77,0.00,,,0.06,WUHU216HW,2013-03-25 03:35:00,
2013-03-24 22:37:00,27.7,21.4,30.10,NW,315,4.0,9.4,77,0.00,,,0.06,WUHU216HW,2013-03-25 03:37:00,
2013-03-24 22:39:00,27.7,21.4,30.10,West,270,8.5,9.4,77,0.00,,,0.06,WUHU216HW,2013-03-25 03:39:00,
2013-03-24 22:40:00,27.7,21.4,30.10,West,270,8.5,9.4,77,0.00,,,0.06,WUHU216HW,2013-03-25 03:40:00,
2013-03-24 22:42:00,27.7,21.4,30.10,WSW,248,2.9,8.5,77,0.00,,,0.06,WUHU216HW,2013-03-25 03:42:00,
2013-03-24 22:43:00,27.7,21.4,30.10,West,270,3.6,8.5,77,0.00,,,0.06,WUHU216HW,2013-03-25 03:43:00,
2013-03-24 22:45:00,27.7,21.4,30.10,NW,315,4.7,8.5,77,0.00,,,0.06,WUHU216HW,2013-03-25 03:45:00,
2013-03-24 22:47:00,27.7,21.4,30.10,WNW,293,6.9,8.5,77,0.00,,,0.06,WUHU216HW,2013-03-25 03:47:00,
2013-03-24 22:49:00,27.7,21.4,30.10,West,270,3.8,8.5,77,0.00,,,0.06,WUHU216HW,2013-03-25 03:49:00,
2013-03-24 22:50:00,27.7,21.4,30.10,NW,315,3.4,8.3,77,0.00,,,0.06,WUHU216HW,2013-03-25 03:50:00,
2013-03-24 22:52:00,27.7,21.4,30.10,NNW,338,4.7,8.3,77,0.00,,,0.06,WUHU216HW,2013-03-25 03:52:00,
2013-03-24 22:54:00,27.5,21.3,30.10,NW,315,4.0,6.9,77,0.00,,,0.06,WUHU216HW,2013-03-25 03:54:00,
2013-03-24 22:55:00,27.5,21.3,30.10,NW,315,4.0,6.9,77,0.00,,,0.06,WUHU216HW,2013-03-25 03:55:00,
2013-03-24 22:56:00,27.7,21.7,30.10,NNW,338,3.6,8.5,78,0.00,,,0.06,WUHU216HW,2013-03-25 03:56:00,
2013-03-24 22:57:00,27.7,21.7,30.10,West,270,4.0,8.5,78,0.00,,,0.06,WUHU216HW,2013-03-25 03:57:00,
2013-03-24 23:00:00,27.5,21.5,30.10,WNW,293,4.0,8.5,78,0.00,,,0.06,WUHU216HW,2013-03-25 04:00:00,
2013-03-24 23:02:00,27.5,21.5,30.10,WNW,293,3.4,8.5,78,0.00,,,0.06,WUHU216HW,2013-03-25 04:02:00,
2013-03-24 23:03:00,27.5,21.5,30.10,NNW,338,2.7,8.5,78,0.00,,,0.06,WUHU216HW,2013-03-25 04:03:00,
2013-03-24 23:05:00,27.5,21.5,30.10,WNW,293,3.4,8.5,78,0.00,,,0.06,WUHU216HW,2013-03-25 04:05:00,
2013-03-24 23:07:00,27.4,21.3,30.10,WNW,293,2.2,5.6,78,0.00,,,0.06,WUHU216HW,2013-03-25 04:07:00,
2013-03-24 23:10:00,27.4,21.3,30.10,WNW,293,5.1,5.6,78,0.00,,,0.06,WUHU216HW,2013-03-25 04:10:00,
2013-03-24 23:15:00,27.5,21.5,30.10,NW,315,4.7,6.3,78,0.00,,,0.06,WUHU216HW,2013-03-25 04:15:00,
2013-03-24 23:18:00,27.5,21.5,30.10,WSW,248,2.2,6.3,78,0.00,,,0.06,WUHU216HW,2013-03-25 04:18:00,
2013-03-24 23:20:00,27.5,21.5,30.09,WNW,293,3.4,6.3,78,0.00,,,0.06,WUHU216HW,2013-03-25 04:20:00,
2013-03-24 23:21:00,27.5,21.5,30.09,WNW,293,5.4,7.8,78,0.00,,,0.06,WUHU216HW,2013-03-25 04:21:00,
2013-03-24 23:22:00,27.5,21.5,30.10,NNW,338,4.3,7.8,78,0.00,,,0.06,WUHU216HW,2013-03-25 04:22:00,
2013-03-24 23:24:00,27.5,21.5,30.09,WNW,293,3.8,7.8,78,0.00,,,0.06,WUHU216HW,2013-03-25 04:24:00,
2013-03-24 23:25:00,27.5,21.5,30.09,WNW,293,7.2,7.8,78,0.00,,,0.06,WUHU216HW,2013-03-25 04:25:00,
2013-03-24 23:27:00,27.5,21.5,30.09,West,270,5.6,7.8,78,0.00,,,0.06,WUHU216HW,2013-03-25 04:27:00,
2013-03-24 23:28:00,27.5,21.5,30.09,WNW,293,2.7,7.8,78,0.00,,,0.06,WUHU216HW,2013-03-25 04:28:00,
2013-03-24 23:30:00,27.5,21.5,30.09,NW,315,3.6,7.8,78,0.00,,,0.06,WUHU216HW,2013-03-25 04:30:00,
2013-03-24 23:31:00,27.5,21.5,30.09,NW,315,3.6,7.8,78,0.00,,,0.06,WUHU216HW,2013-03-25 04:31:00,
2013-03-24 23:33:00,27.5,21.5,30.09,West,270,4.7,7.4,78,0.00,,,0.06,WUHU216HW,2013-03-25 04:33:00,
2013-03-24 23:35:00,27.4,21.3,30.10,NW,315,2.5,7.2,78,0.00,,,0.06,WUHU216HW,2013-03-25 04:35:00,
2013-03-24 23:36:00,27.4,21.3,30.10,NW,315,2.5,7.2,78,0.00,,,0.06,WUHU216HW,2013-03-25 04:36:00,
2013-03-24 23:38:00,27.4,21.3,30.09,WNW,293,2.5,6.9,78,0.00,,,0.06,WUHU216HW,2013-03-25 04:38:00,
2013-03-24 23:39:00,27.4,21.3,30.09,West,270,4.3,6.9,78,0.00,,,0.06,WUHU216HW,2013-03-25 04:39:00,
2013-03-24 23:40:00,27.2,21.2,30.09,WNW,293,2.0,6.3,78,0.00,,,0.06,WUHU216HW,2013-03-25 04:40:00,
2013-03-24 23:41:00,27.2,21.2,30.09,WNW,293,2.0,6.3,78,0.00,,,0.06,WUHU216HW,2013-03-25 04:41:00,
2013-03-24 23:44:00,27.2,21.5,30.09,West,270,2.2,6.3,79,0.00,,,0.06,WUHU216HW,2013-03-25 04:44:00,
2013-03-24 23:45:00,27.2,21.5,30.09,WNW,293,3.4,6.3,79,0.00,,,0.06,WUHU216HW,2013-03-25 04:45:00,
2013-03-24 23:46:00,27.2,21.5,30.09,West,270,2.7,6.3,79,0.00,,,0.06,WUHU216HW,2013-03-25 04:46:00,
2013-03-24 23:48:00,27.2,21.5,30.09,NW,315,2.5,6.3,79,0.00,,,0.06,WUHU216HW,2013-03-25 04:48:00,
2013-03-24 23:50:00,27.2,21.5,30.09,WNW,293,2.5,6.3,79,0.00,,,0.06,WUHU216HW,2013-03-25 04:50:00,
2013-03-24 23:51:00,27.0,21.3,30.09,WNW,293,2.9,6.3,79,0.00,,,0.06,WUHU216HW,2013-03-25 04:51:00,
2013-03-24 23:54:00,27.0,21.3,30.09,WNW,293,2.9,6.5,79,0.00,,,0.06,WUHU216HW,2013-03-25 04:54:00,
2013-03-24 23:55:00,27.2,21.5,30.09,NNW,338,2.9,6.5,79,0.00,,,0.06,WUHU216HW,2013-03-25 04:55:00,
2013-03-24 23:56:00,27.2,21.5,30.08,WNW,293,2.0,6.5,79,0.00,,,0.06,WUHU216HW,2013-03-25 04:56:00,
2013-03-24 23:57:00,27.2,21.5,30.08,WNW,293,2.0,6.5,79,0.00,,,0.06,WUHU216HW,2013-03-25 04:57:00,